N482CS CYYR-BIRK

Flight info

Callsign N482CS
Flight time N/A
Altitude 11000
Route HOIST/M019F110 DCT 58N050W 61N040W 63N030W DCT EPENI DCT ELDIS
Aircraft C172/L-SFG/C

Departure

Time 2026-05-08 11:57
Airport Goose Bay Airport (CYYR)

Arrival

Time N/A
Airport Reykjavík Domestic Airport (BIRK)
Time Latitude Longitude Altitude Speed Heading
2026-05-08 11:50 53.31400 -60.41090 143 ft 0 kts 241°
2026-05-08 11:52 53.31399 -60.41092 143 ft 0 kts 252°
2026-05-08 11:52 53.31436 -60.41104 153 ft 11 kts 356°
2026-05-08 11:52 53.31506 -60.41112 153 ft 9 kts 344°
2026-05-08 11:53 53.31548 -60.41172 153 ft 6 kts 306°
2026-05-08 11:53 53.31563 -60.41217 153 ft 3 kts 297°
2026-05-08 11:53 53.31569 -60.41234 153 ft 0 kts 301°
2026-05-08 11:53 53.31571 -60.41239 153 ft 3 kts 304°
2026-05-08 11:54 53.31589 -60.41314 153 ft 11 kts 279°
2026-05-08 11:54 53.31574 -60.41455 154 ft 14 kts 243°
2026-05-08 11:54 53.31552 -60.41615 154 ft 15 kts 296°
2026-05-08 11:54 53.31581 -60.41662 154 ft 0 kts 319°
2026-05-08 11:55 53.31592 -60.41674 154 ft 6 kts 330°
2026-05-08 11:55 53.31645 -60.41757 154 ft 13 kts 273°
2026-05-08 11:55 53.31609 -60.41863 154 ft 11 kts 235°
2026-05-08 11:56 53.31499 -60.42133 155 ft 47 kts 235°
2026-05-08 11:56 53.31259 -60.42656 211 ft 61 kts 241°
2026-05-08 11:56 53.31030 -60.43273 321 ft 65 kts 246°
2026-05-08 11:56 53.30794 -60.43965 449 ft 66 kts 261°
2026-05-08 11:57 53.31052 -60.44540 580 ft 80 kts 336°
2026-05-08 11:57 53.31611 -60.44130 650 ft 104 kts 42°
2026-05-08 11:57 53.32141 -60.43219 719 ft 114 kts 43°
2026-05-08 11:57 53.32685 -60.42259 872 ft 114 kts 41°
2026-05-08 11:58 53.33226 -60.41294 1042 ft 115 kts 49°
2026-05-08 11:58 53.33699 -60.40223 1235 ft 114 kts 48°
2026-05-08 11:58 53.34170 -60.39171 1421 ft 112 kts 50°
2026-05-08 11:59 53.35035 -60.37026 1759 ft 112 kts 49°
2026-05-08 11:59 53.35481 -60.35930 1911 ft 115 kts 50°
2026-05-08 11:59 53.35946 -60.34835 2044 ft 117 kts 50°
2026-05-08 11:59 53.36398 -60.33734 2221 ft 113 kts 50°
2026-05-08 12:00 53.36832 -60.32647 2401 ft 111 kts 50°
2026-05-08 12:00 53.37257 -60.31580 2583 ft 109 kts 50°
2026-05-08 12:00 53.37662 -60.30530 2755 ft 106 kts 49°
2026-05-08 12:00 53.38056 -60.29492 2905 ft 105 kts 50°
2026-05-08 12:01 53.38438 -60.28465 3062 ft 103 kts 50°
2026-05-08 12:01 53.38801 -60.27460 3210 ft 101 kts 51°
2026-05-08 12:01 53.39166 -60.26439 3347 ft 101 kts 51°
2026-05-08 12:01 53.39517 -60.25423 3478 ft 101 kts 50°
2026-05-08 12:02 53.39862 -60.24419 3611 ft 101 kts 50°
2026-05-08 12:02 53.40207 -60.23400 3739 ft 101 kts 50°
2026-05-08 12:02 53.40552 -60.22363 3846 ft 102 kts 50°
2026-05-08 12:02 53.40927 -60.21363 3952 ft 99 kts 39°
2026-05-08 12:03 53.41341 -60.20427 4063 ft 100 kts 41°
2026-05-08 12:03 53.41758 -60.19493 4174 ft 100 kts 42°
2026-05-08 12:03 53.42174 -60.18549 4287 ft 101 kts 42°
2026-05-08 12:03 53.42590 -60.17598 4394 ft 101 kts 42°
2026-05-08 12:04 53.43002 -60.16640 4490 ft 101 kts 41°
2026-05-08 12:04 53.43417 -60.15680 4597 ft 101 kts 41°
2026-05-08 12:04 53.43834 -60.14718 4702 ft 102 kts 41°
2026-05-08 12:04 53.44256 -60.13755 4806 ft 103 kts 41°
2026-05-08 12:05 53.44675 -60.12782 4914 ft 103 kts 42°
2026-05-08 12:05 53.45094 -60.11811 5018 ft 103 kts 42°
2026-05-08 12:05 53.45509 -60.10837 5111 ft 103 kts 43°
2026-05-08 12:05 53.45924 -60.09869 5216 ft 102 kts 42°
2026-05-08 12:06 53.46336 -60.08904 5316 ft 102 kts 42°
2026-05-08 12:06 53.46742 -60.07939 5420 ft 101 kts 42°
2026-05-08 12:06 53.47141 -60.06976 5523 ft 100 kts 41°
2026-05-08 12:06 53.47534 -60.06018 5622 ft 98 kts 42°
2026-05-08 12:07 53.47919 -60.05082 5725 ft 96 kts 42°
2026-05-08 12:07 53.48299 -60.04153 5805 ft 97 kts 43°
2026-05-08 12:07 53.48708 -60.03281 5869 ft 96 kts 37°
2026-05-08 12:07 53.49134 -60.02400 5935 ft 98 kts 36°
2026-05-08 12:08 53.49574 -60.01492 5997 ft 101 kts 36°
2026-05-08 12:08 53.50029 -60.00568 6055 ft 104 kts 37°
2026-05-08 12:08 53.50504 -59.99636 6112 ft 106 kts 34°
2026-05-08 12:08 53.51005 -59.98710 6174 ft 108 kts 35°
2026-05-08 12:09 53.51519 -59.97770 6221 ft 110 kts 35°
2026-05-08 12:09 53.52041 -59.96818 6275 ft 112 kts 35°
2026-05-08 12:09 53.52572 -59.95854 6343 ft 113 kts 36°
2026-05-08 12:09 53.53122 -59.94884 6398 ft 115 kts 36°
2026-05-08 12:10 53.53674 -59.93914 6474 ft 115 kts 35°
2026-05-08 12:10 53.54224 -59.92947 6547 ft 114 kts 35°
2026-05-08 12:10 53.54770 -59.91984 6630 ft 112 kts 35°
2026-05-08 12:10 53.55297 -59.91047 6709 ft 112 kts 35°
2026-05-08 12:11 53.55828 -59.90098 6773 ft 111 kts 35°
2026-05-08 12:11 53.56355 -59.89156 6854 ft 110 kts 36°
2026-05-08 12:11 53.56878 -59.88219 6926 ft 109 kts 36°
2026-05-08 12:11 53.57396 -59.87293 6998 ft 108 kts 36°
2026-05-08 12:12 53.57906 -59.86373 7070 ft 107 kts 36°
2026-05-08 12:12 53.58407 -59.85462 7132 ft 106 kts 36°
2026-05-08 12:12 53.58913 -59.84543 7189 ft 107 kts 36°
2026-05-08 12:12 53.59424 -59.83616 7242 ft 108 kts 36°
2026-05-08 12:13 53.59940 -59.82683 7297 ft 109 kts 35°
2026-05-08 12:13 53.60460 -59.81745 7340 ft 110 kts 36°
2026-05-08 12:13 53.60984 -59.80801 7394 ft 111 kts 36°
2026-05-08 12:13 53.61512 -59.79850 7451 ft 111 kts 36°
2026-05-08 12:14 53.62043 -59.78895 7506 ft 112 kts 36°
2026-05-08 12:14 53.62580 -59.77933 7561 ft 113 kts 36°
2026-05-08 12:14 53.63121 -59.76967 7618 ft 114 kts 37°
2026-05-08 12:14 53.63666 -59.75995 7670 ft 115 kts 37°
2026-05-08 12:15 53.64216 -59.75015 7724 ft 116 kts 36°
2026-05-08 12:15 53.64772 -59.74026 7780 ft 116 kts 35°
2026-05-08 12:15 53.65339 -59.73088 7831 ft 116 kts 34°
2026-05-08 12:15 53.65918 -59.72133 7885 ft 117 kts 34°
2026-05-08 12:16 53.66501 -59.71174 7938 ft 118 kts 34°
2026-05-08 12:16 53.67088 -59.70205 7991 ft 118 kts 34°
2026-05-08 12:16 53.67679 -59.69231 8046 ft 119 kts 34°
2026-05-08 12:16 53.68271 -59.68255 8096 ft 119 kts 34°
2026-05-08 12:17 53.68867 -59.67276 8150 ft 120 kts 34°
2026-05-08 12:17 53.69464 -59.66296 8204 ft 120 kts 34°
2026-05-08 12:17 53.70063 -59.65314 8257 ft 120 kts 34°
2026-05-08 12:17 53.70662 -59.64331 8310 ft 120 kts 34°
2026-05-08 12:18 53.71263 -59.63344 8359 ft 121 kts 34°
2026-05-08 12:18 53.71864 -59.62353 8428 ft 121 kts 35°
2026-05-08 12:18 53.72475 -59.61373 8475 ft 121 kts 34°
2026-05-08 12:18 53.73089 -59.60397 8527 ft 121 kts 34°
2026-05-08 12:19 53.73703 -59.59422 8582 ft 121 kts 34°
2026-05-08 12:19 53.74315 -59.58447 8635 ft 121 kts 34°
2026-05-08 12:19 53.74924 -59.57472 8687 ft 120 kts 34°
2026-05-08 12:19 53.75528 -59.56503 8736 ft 119 kts 34°
2026-05-08 12:20 53.76124 -59.55542 8774 ft 118 kts 34°
2026-05-08 12:20 53.76714 -59.54584 8816 ft 118 kts 35°
2026-05-08 12:20 53.77310 -59.53619 8845 ft 119 kts 35°
2026-05-08 12:20 53.77911 -59.52647 8875 ft 120 kts 35°
2026-05-08 12:21 53.78519 -59.51668 8903 ft 121 kts 35°
2026-05-08 12:21 53.79130 -59.50686 8932 ft 122 kts 35°
2026-05-08 12:21 53.79746 -59.49696 8964 ft 123 kts 35°
2026-05-08 12:21 53.80368 -59.48696 8994 ft 124 kts 35°
2026-05-08 12:22 53.80995 -59.47689 9026 ft 125 kts 35°
2026-05-08 12:22 53.81627 -59.46673 9057 ft 126 kts 35°
2026-05-08 12:22 53.82264 -59.45647 9088 ft 127 kts 35°
2026-05-08 12:22 53.82909 -59.44611 9122 ft 128 kts 35°
2026-05-08 12:23 53.83560 -59.43569 9154 ft 130 kts 36°
2026-05-08 12:23 53.84147 -59.42384 9173 ft 132 kts 41°
2026-05-08 12:23 53.84764 -59.41236 9204 ft 132 kts 42°
2026-05-08 12:23 53.85375 -59.40068 9239 ft 132 kts 42°
2026-05-08 12:24 53.85970 -59.38919 9286 ft 131 kts 42°
2026-05-08 12:24 53.86574 -59.37750 9336 ft 129 kts 42°
2026-05-08 12:24 53.87155 -59.36624 9384 ft 128 kts 42°
2026-05-08 12:24 53.87734 -59.35499 9429 ft 126 kts 42°
2026-05-08 12:25 53.88304 -59.34393 9477 ft 124 kts 42°
2026-05-08 12:25 53.88868 -59.33301 9520 ft 122 kts 42°
2026-05-08 12:25 53.89422 -59.32224 9563 ft 120 kts 41°
2026-05-08 12:25 53.89973 -59.31153 9583 ft 120 kts 41°
2026-05-08 12:26 53.90522 -59.30082 9603 ft 120 kts 42°
2026-05-08 12:26 53.91070 -59.29015 9626 ft 120 kts 42°
2026-05-08 12:26 53.91616 -59.27951 9658 ft 120 kts 45°
2026-05-08 12:26 53.92167 -59.26879 9688 ft 122 kts 45°
2026-05-08 12:27 53.92729 -59.25784 9722 ft 124 kts 45°
2026-05-08 12:27 53.93297 -59.24675 9745 ft 124 kts 45°
2026-05-08 12:27 53.93859 -59.23581 9763 ft 122 kts 45°
2026-05-08 12:27 53.94413 -59.22497 9785 ft 121 kts 44°
2026-05-08 12:28 53.94963 -59.21424 9802 ft 120 kts 44°
2026-05-08 12:28 53.95510 -59.20354 9824 ft 120 kts 45°
2026-05-08 12:28 53.96056 -59.19288 9852 ft 120 kts 45°
2026-05-08 12:28 53.96607 -59.18211 9861 ft 122 kts 45°
2026-05-08 12:29 53.97163 -59.17122 9869 ft 122 kts 45°
2026-05-08 12:29 53.97722 -59.16026 9876 ft 124 kts 45°
2026-05-08 12:29 53.98291 -59.14909 9882 ft 126 kts 45°
2026-05-08 12:29 53.98866 -59.13782 9880 ft 126 kts 45°
2026-05-08 12:30 53.99447 -59.12645 9885 ft 129 kts 46°
2026-05-08 12:30 54.00036 -59.11488 9890 ft 130 kts 46°
2026-05-08 12:30 54.00633 -59.10317 9894 ft 132 kts 45°
2026-05-08 12:30 54.01232 -59.09139 9895 ft 131 kts 45°
2026-05-08 12:31 54.01823 -59.07980 9917 ft 129 kts 45°
2026-05-08 12:31 54.02408 -59.06832 9939 ft 128 kts 45°
2026-05-08 12:31 54.02793 -59.06072 9951 ft 128 kts 45°
2026-05-08 12:31 54.03573 -59.04539 9987 ft 128 kts 45°
2026-05-08 12:32 54.03961 -59.03780 10007 ft 129 kts 46°
2026-05-08 12:32 54.04546 -59.02627 10035 ft 129 kts 45°
2026-05-08 12:32 54.05136 -59.01466 10043 ft 130 kts 46°
2026-05-08 12:32 54.05726 -59.00301 10047 ft 130 kts 47°
2026-05-08 12:33 54.06319 -58.99132 10067 ft 130 kts 48°
2026-05-08 12:33 54.06911 -58.97968 10091 ft 130 kts 48°
2026-05-08 12:33 54.07502 -58.96801 10114 ft 130 kts 48°
2026-05-08 12:33 54.08089 -58.95643 10137 ft 129 kts 48°
2026-05-08 12:34 54.08673 -58.94488 10158 ft 129 kts 48°
2026-05-08 12:34 54.09256 -58.93336 10179 ft 128 kts 49°
2026-05-08 12:34 54.09837 -58.92189 10207 ft 128 kts 49°
2026-05-08 12:34 54.10415 -58.91046 10233 ft 127 kts 51°
2026-05-08 12:35 54.10990 -58.89910 10253 ft 126 kts 51°
2026-05-08 12:35 54.11565 -58.88770 10259 ft 128 kts 51°
2026-05-08 12:35 54.12145 -58.87619 10264 ft 129 kts 51°
2026-05-08 12:35 54.12732 -58.86456 10269 ft 130 kts 51°
2026-05-08 12:36 54.13325 -58.85282 10274 ft 131 kts 51°
2026-05-08 12:36 54.13917 -58.84108 10269 ft 133 kts 51°
2026-05-08 12:36 54.14523 -58.82905 10276 ft 135 kts 51°
2026-05-08 12:36 54.15148 -58.81660 10281 ft 138 kts 51°
2026-05-08 12:37 54.15763 -58.80438 10315 ft 138 kts 51°
2026-05-08 12:37 54.16390 -58.79193 10340 ft 139 kts 51°
2026-05-08 12:37 54.17018 -58.77946 10366 ft 138 kts 51°
2026-05-08 12:37 54.17643 -58.76702 10391 ft 138 kts 51°
2026-05-08 12:38 54.18267 -58.75461 10414 ft 137 kts 51°
2026-05-08 12:38 54.18887 -58.74226 10437 ft 137 kts 51°
2026-05-08 12:38 54.19504 -58.72997 10458 ft 136 kts 51°
2026-05-08 12:38 54.20117 -58.71775 10485 ft 135 kts 51°
2026-05-08 12:39 54.20729 -58.70556 10504 ft 135 kts 51°
2026-05-08 12:39 54.21340 -58.69339 10524 ft 135 kts 51°
2026-05-08 12:39 54.21948 -58.68125 10547 ft 134 kts 51°
2026-05-08 12:39 54.22554 -58.66915 10573 ft 134 kts 51°
2026-05-08 12:40 54.23159 -58.65708 10595 ft 134 kts 51°
2026-05-08 12:40 54.23761 -58.64502 10620 ft 134 kts 51°
2026-05-08 12:40 54.24363 -58.63300 10642 ft 132 kts 52°
2026-05-08 12:40 54.24959 -58.62108 10657 ft 132 kts 52°
2026-05-08 12:41 54.25549 -58.60927 10658 ft 133 kts 52°
2026-05-08 12:41 54.26153 -58.59714 10663 ft 135 kts 52°
2026-05-08 12:41 54.26763 -58.58488 10669 ft 136 kts 51°
2026-05-08 12:41 54.27377 -58.57259 10686 ft 136 kts 52°
2026-05-08 12:42 54.27988 -58.56036 10705 ft 135 kts 52°
2026-05-08 12:42 54.28597 -58.54815 10731 ft 135 kts 52°
2026-05-08 12:42 54.29205 -58.53591 10755 ft 135 kts 55°
2026-05-08 12:42 54.29819 -58.52355 10762 ft 138 kts 54°
2026-05-08 12:43 54.30443 -58.51098 10770 ft 139 kts 55°
2026-05-08 12:43 54.31075 -58.49828 10774 ft 141 kts 55°
2026-05-08 12:43 54.31715 -58.48542 10778 ft 143 kts 55°
2026-05-08 12:43 54.32357 -58.47248 10792 ft 142 kts 54°
2026-05-08 12:44 54.32998 -58.45960 10815 ft 141 kts 54°
2026-05-08 12:44 54.33630 -58.44686 10836 ft 139 kts 55°
2026-05-08 12:44 54.34255 -58.43426 10859 ft 139 kts 55°
2026-05-08 12:44 54.34881 -58.42165 10884 ft 139 kts 55°
2026-05-08 12:45 54.35506 -58.40903 10907 ft 139 kts 55°
2026-05-08 12:45 54.36131 -58.39643 10927 ft 139 kts 55°
2026-05-08 12:45 54.36756 -58.38378 10952 ft 139 kts 55°
2026-05-08 12:45 54.37382 -58.37111 10980 ft 139 kts 55°
2026-05-08 12:46 54.38011 -58.35837 10981 ft 141 kts 55°
2026-05-08 12:46 54.38649 -58.34544 10988 ft 143 kts 55°
2026-05-08 12:46 54.39295 -58.33238 10990 ft 144 kts 55°
2026-05-08 12:46 54.39943 -58.31924 10995 ft 145 kts 55°
2026-05-08 12:47 54.40598 -58.30595 10997 ft 147 kts 55°
2026-05-08 12:47 54.41263 -58.29245 10995 ft 149 kts 55°
2026-05-08 12:47 54.41931 -58.27892 10994 ft 148 kts 55°
2026-05-08 12:47 54.42596 -58.26545 10993 ft 147 kts 55°
2026-05-08 12:48 54.43257 -58.25201 10993 ft 147 kts 55°
2026-05-08 12:48 54.43919 -58.23853 10993 ft 148 kts 55°
2026-05-08 12:48 54.44584 -58.22500 10994 ft 148 kts 55°
2026-05-08 12:48 54.45247 -58.21155 10989 ft 146 kts 55°
2026-05-08 12:49 54.45889 -58.19846 10986 ft 145 kts 55°
2026-05-08 12:49 54.46543 -58.18515 10981 ft 143 kts 55°
2026-05-08 12:49 54.47182 -58.17215 10983 ft 142 kts 55°
2026-05-08 12:49 54.47808 -58.15941 10983 ft 141 kts 55°
2026-05-08 12:50 54.48435 -58.14660 10984 ft 139 kts 55°
2026-05-08 12:50 54.49056 -58.13394 10974 ft 138 kts 55°
2026-05-08 12:50 54.49669 -58.12143 10978 ft 136 kts 55°
2026-05-08 12:50 54.50276 -58.10905 10980 ft 135 kts 56°
2026-05-08 12:51 54.50879 -58.09672 10982 ft 134 kts 56°
2026-05-08 12:51 54.52066 -58.07247 10986 ft 130 kts 56°
2026-05-08 12:51 54.52642 -58.06072 10976 ft 127 kts 56°
2026-05-08 12:52 54.53202 -58.04924 10984 ft 124 kts 56°
2026-05-08 12:52 54.54289 -58.02706 10926 ft 120 kts 57°
2026-05-08 12:52 54.54825 -58.01604 10913 ft 120 kts 56°
2026-05-08 12:53 54.55360 -58.00501 10901 ft 120 kts 56°
2026-05-08 12:53 54.55895 -57.99399 10876 ft 120 kts 56°
2026-05-08 12:53 54.56446 -57.98253 10782 ft 132 kts 57°
2026-05-08 12:53 54.57044 -57.97024 10784 ft 133 kts 55°
2026-05-08 12:54 54.57642 -57.95800 10790 ft 134 kts 55°
2026-05-08 12:54 54.58241 -57.94569 10793 ft 134 kts 55°
2026-05-08 12:54 54.58844 -57.93326 10796 ft 135 kts 55°
2026-05-08 12:54 54.59443 -57.92093 10800 ft 136 kts 55°
2026-05-08 12:55 54.60057 -57.90828 10808 ft 139 kts 55°
2026-05-08 12:55 54.60679 -57.89545 10811 ft 140 kts 55°
2026-05-08 12:55 54.61304 -57.88260 10831 ft 139 kts 55°
2026-05-08 12:55 54.61920 -57.86989 10851 ft 138 kts 55°
2026-05-08 12:56 54.62532 -57.85727 10873 ft 136 kts 54°
2026-05-08 12:56 54.63136 -57.84480 10892 ft 135 kts 55°
2026-05-08 12:56 54.63735 -57.83241 10916 ft 134 kts 56°
2026-05-08 12:56 54.64334 -57.82006 10939 ft 134 kts 56°
2026-05-08 12:57 54.64929 -57.80777 10962 ft 133 kts 56°
2026-05-08 12:57 54.65517 -57.79560 10984 ft 131 kts 56°
2026-05-08 12:57 54.66099 -57.78350 10990 ft 131 kts 58°
2026-05-08 12:57 54.66685 -57.77135 10990 ft 132 kts 58°
2026-05-08 12:58 54.67273 -57.75916 10993 ft 132 kts 58°
2026-05-08 12:58 54.67866 -57.74689 10995 ft 133 kts 58°
2026-05-08 12:58 54.68460 -57.73458 10996 ft 134 kts 58°
2026-05-08 12:58 54.69057 -57.72216 11000 ft 135 kts 58°
2026-05-08 12:59 54.69657 -57.70968 11004 ft 135 kts 58°
2026-05-08 12:59 54.70262 -57.69711 11003 ft 137 kts 58°
2026-05-08 12:59 54.70873 -57.68442 11003 ft 138 kts 58°
2026-05-08 12:59 54.71488 -57.67161 11004 ft 139 kts 58°
2026-05-08 13:00 54.72100 -57.65885 11003 ft 140 kts 57°
2026-05-08 13:00 54.72725 -57.64584 11005 ft 141 kts 58°
2026-05-08 13:00 54.73353 -57.63274 11013 ft 142 kts 58°
2026-05-08 13:00 54.73986 -57.61955 11012 ft 143 kts 58°
2026-05-08 13:01 54.74623 -57.60626 11010 ft 145 kts 58°
2026-05-08 13:01 54.75276 -57.59263 11011 ft 145 kts 57°
2026-05-08 13:01 54.75912 -57.57934 11010 ft 146 kts 57°
2026-05-08 13:01 54.76561 -57.56578 11012 ft 146 kts 57°
2026-05-08 13:02 54.77211 -57.55219 11012 ft 147 kts 57°
2026-05-08 13:02 54.77862 -57.53859 11013 ft 147 kts 57°
2026-05-08 13:02 54.78514 -57.52497 11012 ft 147 kts 57°
2026-05-08 13:02 54.79165 -57.51133 11012 ft 147 kts 57°
2026-05-08 13:03 54.79819 -57.49762 11010 ft 148 kts 57°
2026-05-08 13:03 54.80473 -57.48390 11011 ft 148 kts 57°
2026-05-08 13:03 54.81129 -57.47016 11011 ft 148 kts 57°
2026-05-08 13:03 54.81785 -57.45640 11011 ft 148 kts 57°
2026-05-08 13:04 54.82441 -57.44263 11011 ft 148 kts 57°
2026-05-08 13:04 54.83097 -57.42884 11012 ft 148 kts 57°
2026-05-08 13:04 54.83754 -57.41502 11012 ft 149 kts 57°
2026-05-08 13:04 54.84411 -57.40119 11007 ft 149 kts 57°
2026-05-08 13:05 54.85071 -57.38729 11004 ft 149 kts 60°
2026-05-08 13:05 54.85733 -57.37337 11005 ft 150 kts 60°
2026-05-08 13:05 54.86396 -57.35942 11004 ft 150 kts 60°
2026-05-08 13:05 54.87060 -57.34543 11004 ft 150 kts 60°
2026-05-08 13:06 54.87723 -57.33143 11009 ft 150 kts 59°
2026-05-08 13:06 54.88387 -57.31741 11004 ft 150 kts 60°
2026-05-08 13:06 54.89051 -57.30339 11005 ft 150 kts 60°
2026-05-08 13:06 54.89707 -57.28955 11004 ft 150 kts 60°
2026-05-08 13:07 54.90380 -57.27533 11005 ft 151 kts 59°
2026-05-08 13:07 54.91036 -57.26144 11004 ft 151 kts 59°
2026-05-08 13:07 54.91701 -57.24735 11004 ft 151 kts 59°
2026-05-08 13:07 54.92364 -57.23335 10993 ft 149 kts 62°
2026-05-08 13:08 54.93023 -57.21939 10996 ft 149 kts 62°
2026-05-08 13:08 54.93683 -57.20538 10998 ft 150 kts 62°
2026-05-08 13:08 54.94346 -57.19133 10997 ft 150 kts 62°
2026-05-08 13:08 54.95010 -57.17724 10998 ft 151 kts 62°
2026-05-08 13:09 54.95675 -57.16311 10998 ft 151 kts 62°
2026-05-08 13:09 54.96342 -57.14892 11001 ft 152 kts 62°
2026-05-08 13:09 54.97011 -57.13468 11002 ft 152 kts 62°
2026-05-08 13:09 54.97684 -57.12039 11003 ft 153 kts 62°
2026-05-08 13:10 54.98357 -57.10607 11003 ft 153 kts 62°
2026-05-08 13:10 54.99031 -57.09171 11004 ft 153 kts 62°
2026-05-08 13:10 54.99706 -57.07732 11005 ft 154 kts 62°
2026-05-08 13:10 55.00382 -57.06289 11006 ft 154 kts 62°
2026-05-08 13:11 55.01060 -57.04844 11006 ft 154 kts 62°
2026-05-08 13:11 55.01739 -57.03396 11006 ft 154 kts 62°
2026-05-08 13:11 55.02418 -57.01946 11006 ft 155 kts 61°
2026-05-08 13:11 55.03097 -57.00492 10999 ft 155 kts 63°
2026-05-08 13:12 55.03818 -56.99079 10999 ft 156 kts 61°
2026-05-08 13:12 55.04502 -56.97635 11000 ft 154 kts 64°
2026-05-08 13:12 55.05189 -56.96193 11000 ft 155 kts 63°
2026-05-08 13:12 55.05883 -56.94758 11000 ft 155 kts 63°
2026-05-08 13:13 55.06581 -56.93326 10997 ft 155 kts 63°
2026-05-08 13:13 55.07278 -56.91892 10997 ft 155 kts 63°
2026-05-08 13:13 55.07974 -56.90459 10997 ft 155 kts 63°
2026-05-08 13:13 55.08671 -56.89024 10997 ft 155 kts 63°
2026-05-08 13:14 55.09359 -56.87608 10996 ft 155 kts 63°
2026-05-08 13:14 55.10056 -56.86175 11001 ft 155 kts 63°
2026-05-08 13:14 55.10751 -56.84741 10995 ft 155 kts 63°
2026-05-08 13:14 55.11448 -56.83302 10996 ft 155 kts 63°
2026-05-08 13:15 55.12143 -56.81867 10996 ft 155 kts 63°
2026-05-08 13:15 55.12840 -56.80427 10996 ft 155 kts 63°
2026-05-08 13:15 55.13537 -56.78989 10996 ft 155 kts 63°
2026-05-08 13:15 55.14233 -56.77549 10996 ft 155 kts 63°
2026-05-08 13:16 55.14930 -56.76107 10998 ft 155 kts 63°
2026-05-08 13:16 55.15627 -56.74663 10998 ft 155 kts 63°
2026-05-08 13:16 55.16324 -56.73219 10998 ft 156 kts 63°
2026-05-08 13:16 55.17024 -56.71771 10998 ft 156 kts 63°
2026-05-08 13:17 55.17722 -56.70324 10998 ft 156 kts 63°
2026-05-08 13:17 55.18419 -56.68877 10998 ft 156 kts 63°
2026-05-08 13:17 55.19118 -56.67426 10998 ft 156 kts 63°
2026-05-08 13:17 55.19814 -56.65978 10997 ft 155 kts 63°
2026-05-08 13:18 55.20511 -56.64531 10995 ft 155 kts 63°
2026-05-08 13:18 55.21207 -56.63085 10994 ft 155 kts 63°
2026-05-08 13:18 55.21902 -56.61638 10986 ft 154 kts 64°
2026-05-08 13:18 55.22588 -56.60206 10995 ft 154 kts 65°
2026-05-08 13:19 55.23275 -56.58775 10989 ft 153 kts 66°
2026-05-08 13:19 55.23962 -56.57346 10991 ft 153 kts 66°
2026-05-08 13:19 55.24646 -56.55918 10994 ft 153 kts 65°
2026-05-08 13:19 55.25332 -56.54487 10995 ft 153 kts 65°
2026-05-08 13:20 55.26015 -56.53059 10990 ft 153 kts 65°
2026-05-08 13:20 55.26697 -56.51633 10989 ft 153 kts 65°
2026-05-08 13:20 55.27379 -56.50207 10989 ft 152 kts 66°
2026-05-08 13:20 55.28060 -56.48784 10988 ft 152 kts 66°
2026-05-08 13:21 55.28741 -56.47360 10989 ft 152 kts 65°
2026-05-08 13:21 55.29191 -56.46416 10988 ft 152 kts 66°
2026-05-08 13:21 55.30089 -56.44532 10988 ft 152 kts 66°
2026-05-08 13:21 55.30769 -56.43108 10988 ft 152 kts 66°
2026-05-08 13:22 55.31448 -56.41684 10987 ft 152 kts 66°
2026-05-08 13:22 55.32127 -56.40257 10987 ft 152 kts 65°
2026-05-08 13:22 55.32585 -56.39294 10987 ft 152 kts 65°
2026-05-08 13:22 55.33264 -56.37868 10987 ft 152 kts 66°
2026-05-08 13:23 55.33942 -56.36444 10988 ft 152 kts 66°
2026-05-08 13:23 55.34609 -56.35041 10989 ft 152 kts 65°
2026-05-08 13:23 55.35283 -56.33621 10989 ft 152 kts 65°
2026-05-08 13:23 55.35958 -56.32197 10989 ft 152 kts 66°
2026-05-08 13:24 55.36633 -56.30773 10991 ft 152 kts 66°
2026-05-08 13:24 55.37309 -56.29349 10991 ft 152 kts 66°
2026-05-08 13:24 55.37986 -56.27921 10991 ft 152 kts 66°
2026-05-08 13:24 55.38663 -56.26493 10991 ft 152 kts 65°
2026-05-08 13:25 55.39339 -56.25062 10991 ft 152 kts 65°
2026-05-08 13:25 55.40017 -56.23629 10991 ft 152 kts 66°
2026-05-08 13:25 55.40693 -56.22200 10974 ft 151 kts 67°
2026-05-08 13:25 55.41362 -56.20785 10987 ft 150 kts 68°
2026-05-08 13:26 55.42031 -56.19368 10982 ft 151 kts 68°
2026-05-08 13:26 55.42701 -56.17948 10988 ft 151 kts 67°
2026-05-08 13:26 55.43371 -56.16525 10991 ft 151 kts 67°
2026-05-08 13:26 55.44044 -56.15098 10990 ft 151 kts 67°
2026-05-08 13:27 55.44717 -56.13669 10986 ft 151 kts 67°
2026-05-08 13:27 55.45390 -56.12240 10986 ft 152 kts 67°
2026-05-08 13:27 55.46064 -56.10810 10986 ft 152 kts 67°
2026-05-08 13:27 55.46739 -56.09375 10992 ft 152 kts 67°
2026-05-08 13:28 55.47412 -56.07942 10988 ft 152 kts 67°
2026-05-08 13:28 55.48085 -56.06507 10981 ft 152 kts 67°
2026-05-08 13:28 55.48759 -56.05073 10986 ft 152 kts 68°
2026-05-08 13:28 55.49433 -56.03637 10988 ft 152 kts 67°
2026-05-08 13:29 55.50107 -56.02199 10987 ft 152 kts 67°
2026-05-08 13:29 55.50782 -56.00757 10996 ft 153 kts 67°
2026-05-08 13:29 55.51458 -55.99313 10996 ft 153 kts 67°
2026-05-08 13:29 55.52135 -55.97867 10996 ft 153 kts 68°
2026-05-08 13:30 55.52813 -55.96420 10993 ft 153 kts 67°
2026-05-08 13:30 55.53482 -55.94987 10990 ft 153 kts 67°
2026-05-08 13:30 55.54160 -55.93536 10987 ft 153 kts 67°
2026-05-08 13:30 55.54837 -55.92086 10993 ft 153 kts 67°
2026-05-08 13:31 55.55515 -55.90634 10992 ft 153 kts 67°
2026-05-08 13:31 55.56193 -55.89180 10993 ft 153 kts 67°
2026-05-08 13:31 55.56871 -55.87726 10997 ft 153 kts 67°
2026-05-08 13:31 55.57549 -55.86270 10997 ft 153 kts 67°
2026-05-08 13:32 55.58227 -55.84813 10988 ft 153 kts 67°
2026-05-08 13:32 55.58903 -55.83361 10997 ft 153 kts 68°
2026-05-08 13:32 55.59578 -55.81913 10996 ft 151 kts 68°
2026-05-08 13:32 55.60247 -55.80471 10987 ft 152 kts 68°
2026-05-08 13:33 55.60915 -55.79031 10995 ft 151 kts 68°
2026-05-08 13:33 55.61585 -55.77589 10996 ft 152 kts 69°
2026-05-08 13:33 55.62255 -55.76145 10996 ft 152 kts 68°
2026-05-08 13:33 55.62925 -55.74699 10995 ft 152 kts 68°
2026-05-08 13:34 55.63596 -55.73251 10994 ft 152 kts 68°
2026-05-08 13:34 55.64267 -55.71800 10995 ft 153 kts 68°
2026-05-08 13:34 55.64940 -55.70346 10996 ft 153 kts 68°
2026-05-08 13:34 55.65614 -55.68889 10996 ft 153 kts 68°
2026-05-08 13:35 55.66290 -55.67428 10996 ft 153 kts 68°
2026-05-08 13:35 55.66963 -55.65970 10996 ft 153 kts 68°
2026-05-08 13:35 55.67637 -55.64510 10995 ft 153 kts 68°
2026-05-08 13:35 55.68310 -55.63052 10994 ft 153 kts 68°
2026-05-08 13:36 55.68981 -55.61597 10995 ft 152 kts 69°
2026-05-08 13:36 55.69652 -55.60141 10993 ft 152 kts 68°
2026-05-08 13:36 55.70322 -55.58685 10992 ft 152 kts 68°
2026-05-08 13:36 55.70992 -55.57229 10988 ft 152 kts 68°
2026-05-08 13:37 55.71662 -55.55774 10980 ft 152 kts 68°
2026-05-08 13:37 55.72332 -55.54316 10986 ft 152 kts 68°
2026-05-08 13:37 55.73003 -55.52857 10981 ft 153 kts 68°
2026-05-08 13:37 55.73663 -55.51418 10980 ft 152 kts 68°
2026-05-08 13:38 55.74332 -55.49961 10986 ft 152 kts 68°
2026-05-08 13:38 55.74999 -55.48507 10989 ft 152 kts 69°
2026-05-08 13:38 55.75666 -55.47053 10989 ft 152 kts 69°
2026-05-08 13:38 55.76332 -55.45599 10985 ft 152 kts 69°
2026-05-08 13:39 55.76997 -55.44144 10985 ft 152 kts 68°
2026-05-08 13:39 55.77663 -55.42688 10977 ft 152 kts 68°
2026-05-08 13:39 55.78328 -55.41238 10984 ft 151 kts 70°
2026-05-08 13:39 55.78988 -55.39791 10983 ft 151 kts 70°
2026-05-08 13:40 55.79648 -55.38344 10985 ft 151 kts 69°
2026-05-08 13:40 55.80310 -55.36893 10986 ft 151 kts 70°
2026-05-08 13:40 55.80971 -55.35444 10986 ft 151 kts 70°
2026-05-08 13:40 55.81635 -55.33991 10986 ft 151 kts 70°
2026-05-08 13:41 55.82296 -55.32539 10988 ft 151 kts 70°
2026-05-08 13:41 55.82958 -55.31085 10988 ft 152 kts 70°
2026-05-08 13:41 55.83621 -55.29626 10989 ft 152 kts 69°
2026-05-08 13:41 55.84288 -55.28159 10990 ft 153 kts 69°
2026-05-08 13:42 55.84957 -55.26688 10990 ft 153 kts 69°
2026-05-08 13:42 55.85626 -55.25218 10990 ft 153 kts 69°
2026-05-08 13:42 55.86294 -55.23747 10989 ft 153 kts 69°
2026-05-08 13:42 55.86961 -55.22276 10988 ft 153 kts 69°
2026-05-08 13:43 55.87627 -55.20806 10963 ft 152 kts 70°
2026-05-08 13:43 55.88286 -55.19366 10990 ft 148 kts 71°
2026-05-08 13:43 55.88932 -55.17932 10993 ft 149 kts 70°
2026-05-08 13:43 55.89582 -55.16491 10995 ft 150 kts 70°
2026-05-08 13:44 55.90226 -55.15064 10996 ft 150 kts 70°
2026-05-08 13:44 55.90882 -55.13615 10997 ft 150 kts 70°
2026-05-08 13:44 55.91538 -55.12162 10998 ft 151 kts 70°
2026-05-08 13:44 55.92197 -55.10704 10999 ft 151 kts 70°
2026-05-08 13:45 55.92857 -55.09239 10999 ft 152 kts 70°
2026-05-08 13:45 55.93523 -55.07761 11001 ft 153 kts 70°
2026-05-08 13:45 55.94192 -55.06276 11004 ft 154 kts 70°
2026-05-08 13:45 55.94863 -55.04789 11004 ft 154 kts 70°
2026-05-08 13:46 55.95534 -55.03299 11007 ft 154 kts 70°
2026-05-08 13:46 55.96205 -55.01809 11007 ft 154 kts 70°
2026-05-08 13:46 55.96874 -55.00321 10996 ft 153 kts 70°
2026-05-08 13:46 55.97539 -54.98842 10993 ft 153 kts 70°
2026-05-08 13:47 55.98202 -54.97364 10994 ft 152 kts 70°
2026-05-08 13:47 55.98867 -54.95884 10994 ft 152 kts 70°
2026-05-08 13:47 55.99530 -54.94405 10994 ft 153 kts 70°
2026-05-08 13:47 56.00193 -54.92924 10996 ft 153 kts 70°
2026-05-08 13:48 56.00860 -54.91433 10998 ft 154 kts 70°
2026-05-08 13:48 56.01529 -54.89937 11000 ft 154 kts 70°
2026-05-08 13:48 56.02201 -54.88437 11001 ft 155 kts 70°
2026-05-08 13:48 56.02875 -54.86931 11001 ft 155 kts 70°
2026-05-08 13:49 56.03549 -54.85422 11004 ft 155 kts 70°
2026-05-08 13:49 56.04224 -54.83911 11003 ft 156 kts 70°
2026-05-08 13:49 56.04891 -54.82417 11003 ft 156 kts 70°
2026-05-08 13:49 56.05565 -54.80904 11003 ft 155 kts 70°
2026-05-08 13:50 56.06240 -54.79393 11002 ft 155 kts 70°
2026-05-08 13:50 56.06913 -54.77881 11002 ft 155 kts 70°
2026-05-08 13:50 56.07585 -54.76373 11000 ft 155 kts 70°
2026-05-08 13:50 56.08254 -54.74869 10999 ft 154 kts 70°
2026-05-08 13:51 56.08921 -54.73369 10996 ft 154 kts 70°
2026-05-08 13:51 56.09588 -54.71868 10996 ft 154 kts 70°
2026-05-08 13:51 56.10256 -54.70363 10997 ft 154 kts 70°
2026-05-08 13:51 56.10925 -54.68856 10997 ft 155 kts 70°
2026-05-08 13:52 56.11592 -54.67350 11000 ft 154 kts 70°
2026-05-08 13:52 56.12260 -54.65843 10999 ft 154 kts 70°
2026-05-08 13:52 56.12927 -54.64338 10999 ft 154 kts 70°
2026-05-08 13:52 56.13595 -54.62830 10999 ft 154 kts 70°
2026-05-08 13:53 56.14263 -54.61321 10996 ft 154 kts 70°
2026-05-08 13:53 56.14929 -54.59815 10995 ft 154 kts 70°
2026-05-08 13:53 56.15588 -54.58327 10997 ft 151 kts 71°
2026-05-08 13:53 56.16241 -54.56846 10998 ft 152 kts 70°
2026-05-08 13:54 56.16895 -54.55361 10998 ft 152 kts 71°
2026-05-08 13:54 56.17549 -54.53879 10997 ft 151 kts 71°
2026-05-08 13:54 56.18202 -54.52400 10995 ft 151 kts 71°
2026-05-08 13:54 56.18852 -54.50925 10994 ft 151 kts 71°
2026-05-08 13:55 56.19499 -54.49454 10997 ft 150 kts 71°
2026-05-08 13:55 56.20144 -54.47988 10994 ft 150 kts 71°
2026-05-08 13:55 56.21433 -54.45056 10993 ft 149 kts 71°
2026-05-08 13:56 56.22076 -54.43594 10994 ft 149 kts 71°
2026-05-08 13:56 56.22717 -54.42132 10993 ft 149 kts 71°
2026-05-08 13:56 56.23358 -54.40670 10993 ft 149 kts 71°
2026-05-08 13:56 56.23999 -54.39208 10993 ft 149 kts 71°
2026-05-08 13:57 56.24642 -54.37740 10995 ft 150 kts 71°
2026-05-08 13:57 56.25288 -54.36262 10997 ft 151 kts 71°
2026-05-08 13:57 56.25937 -54.34779 10998 ft 151 kts 71°
2026-05-08 13:57 56.26587 -54.33295 11011 ft 151 kts 71°
2026-05-08 13:58 56.27233 -54.31818 11010 ft 150 kts 71°
2026-05-08 13:58 56.27879 -54.30341 11009 ft 150 kts 71°
2026-05-08 13:58 56.28523 -54.28866 11008 ft 150 kts 71°
2026-05-08 13:58 56.29165 -54.27392 11009 ft 150 kts 71°
2026-05-08 13:59 56.29809 -54.25912 11010 ft 151 kts 71°
2026-05-08 13:59 56.30458 -54.24424 11012 ft 151 kts 71°
2026-05-08 13:59 56.31110 -54.22927 11013 ft 152 kts 71°
2026-05-08 13:59 56.31764 -54.21424 11016 ft 153 kts 71°
2026-05-08 14:00 56.32420 -54.19913 11016 ft 153 kts 70°
2026-05-08 14:00 56.33078 -54.18400 11015 ft 153 kts 71°
2026-05-08 14:00 56.33736 -54.16887 11017 ft 154 kts 71°
2026-05-08 14:00 56.34394 -54.15372 11017 ft 153 kts 71°
2026-05-08 14:01 56.35044 -54.13875 11020 ft 154 kts 71°
2026-05-08 14:01 56.35702 -54.12358 11016 ft 154 kts 71°
2026-05-08 14:01 56.36359 -54.10839 11016 ft 154 kts 70°
2026-05-08 14:01 56.37016 -54.09320 11017 ft 154 kts 71°
2026-05-08 14:02 56.37675 -54.07798 11023 ft 154 kts 71°
2026-05-08 14:02 56.38333 -54.06280 11020 ft 154 kts 71°
2026-05-08 14:02 56.38991 -54.04758 11021 ft 154 kts 71°
2026-05-08 14:02 56.39647 -54.03238 11018 ft 153 kts 71°
2026-05-08 14:03 56.40301 -54.01725 11014 ft 152 kts 71°
2026-05-08 14:03 56.40951 -54.00219 11012 ft 152 kts 71°
2026-05-08 14:03 56.41598 -53.98719 11010 ft 151 kts 71°
2026-05-08 14:03 56.42242 -53.97226 11009 ft 151 kts 71°
2026-05-08 14:04 56.42884 -53.95731 11011 ft 151 kts 71°
2026-05-08 14:04 56.43529 -53.94230 11012 ft 152 kts 71°
2026-05-08 14:04 56.44177 -53.92722 11014 ft 152 kts 71°
2026-05-08 14:04 56.44827 -53.91209 11016 ft 153 kts 71°
2026-05-08 14:05 56.45481 -53.89689 11014 ft 153 kts 71°
2026-05-08 14:05 56.46136 -53.88164 11019 ft 154 kts 70°
2026-05-08 14:05 56.46791 -53.86633 11018 ft 154 kts 71°
2026-05-08 14:05 56.47449 -53.85099 11020 ft 155 kts 71°
2026-05-08 14:06 56.48109 -53.83563 11018 ft 154 kts 71°
2026-05-08 14:06 56.48765 -53.82032 11017 ft 153 kts 71°
2026-05-08 14:06 56.49417 -53.80508 11015 ft 153 kts 71°
2026-05-08 14:06 56.50057 -53.79012 11013 ft 152 kts 71°
2026-05-08 14:07 56.50703 -53.77501 11010 ft 151 kts 71°
2026-05-08 14:07 56.51346 -53.75997 11010 ft 151 kts 72°
2026-05-08 14:07 56.51987 -53.74499 11008 ft 149 kts 72°
2026-05-08 14:07 56.52616 -53.73023 11015 ft 148 kts 72°
2026-05-08 14:08 56.53244 -53.71542 11017 ft 149 kts 72°
2026-05-08 14:08 56.53879 -53.70051 11019 ft 150 kts 72°
2026-05-08 14:08 56.54516 -53.68555 11020 ft 150 kts 71°
2026-05-08 14:08 56.55155 -53.67053 11021 ft 151 kts 71°
2026-05-08 14:09 56.55797 -53.65544 11017 ft 151 kts 71°
2026-05-08 14:09 56.56439 -53.64034 11018 ft 151 kts 71°
2026-05-08 14:09 56.57082 -53.62521 11018 ft 151 kts 72°
2026-05-08 14:09 56.57725 -53.61007 11018 ft 151 kts 72°
2026-05-08 14:10 56.58368 -53.59492 11021 ft 152 kts 71°
2026-05-08 14:10 56.58792 -53.58488 11021 ft 151 kts 72°
2026-05-08 14:10 56.59435 -53.56973 11026 ft 151 kts 72°
2026-05-08 14:10 56.60293 -53.54946 11026 ft 151 kts 72°
2026-05-08 14:11 56.60719 -53.53940 11024 ft 152 kts 71°
2026-05-08 14:11 56.61361 -53.52421 11024 ft 152 kts 71°
2026-05-08 14:11 56.62001 -53.50907 11023 ft 151 kts 72°
2026-05-08 14:11 56.62641 -53.49397 11021 ft 150 kts 72°
2026-05-08 14:12 56.63277 -53.47892 11020 ft 150 kts 72°
2026-05-08 14:12 56.63909 -53.46392 11021 ft 149 kts 72°
2026-05-08 14:12 56.64540 -53.44896 11023 ft 149 kts 72°
2026-05-08 14:12 56.65168 -53.43404 11024 ft 148 kts 72°
2026-05-08 14:13 56.65795 -53.41917 11028 ft 148 kts 72°
2026-05-08 14:13 56.66420 -53.40432 11026 ft 148 kts 72°
2026-05-08 14:13 56.67043 -53.38950 11031 ft 148 kts 72°
2026-05-08 14:13 56.67666 -53.37467 11033 ft 148 kts 72°
2026-05-08 14:14 56.68289 -53.35981 11032 ft 148 kts 72°
2026-05-08 14:14 56.68916 -53.34485 11033 ft 149 kts 72°
2026-05-08 14:14 56.69548 -53.32979 11036 ft 150 kts 72°
2026-05-08 14:14 56.70175 -53.31487 11035 ft 150 kts 72°
2026-05-08 14:15 56.70806 -53.29989 11033 ft 147 kts 73°
2026-05-08 14:15 56.71426 -53.28505 11028 ft 147 kts 73°
2026-05-08 14:15 56.72045 -53.27023 11028 ft 147 kts 73°
2026-05-08 14:15 56.72664 -53.25543 11029 ft 147 kts 73°
2026-05-08 14:16 56.73283 -53.24064 11033 ft 147 kts 73°
2026-05-08 14:16 56.73901 -53.22586 11033 ft 147 kts 73°
2026-05-08 14:16 56.74518 -53.21108 11036 ft 147 kts 73°
2026-05-08 14:16 56.75133 -53.19632 11036 ft 146 kts 73°
2026-05-08 14:17 56.75749 -53.18154 11032 ft 146 kts 73°
2026-05-08 14:17 56.76367 -53.16670 11033 ft 147 kts 73°
2026-05-08 14:17 56.76985 -53.15189 11031 ft 147 kts 73°
2026-05-08 14:17 56.77602 -53.13706 11032 ft 147 kts 73°
2026-05-08 14:18 56.78218 -53.12225 11033 ft 147 kts 73°
2026-05-08 14:18 56.78834 -53.10742 11034 ft 147 kts 73°
2026-05-08 14:18 56.79450 -53.09261 11034 ft 146 kts 73°
2026-05-08 14:18 56.80065 -53.07780 11033 ft 146 kts 74°
2026-05-08 14:19 56.80679 -53.06300 11033 ft 147 kts 74°
2026-05-08 14:19 56.81297 -53.04804 11037 ft 149 kts 73°
2026-05-08 14:19 56.81924 -53.03290 11044 ft 150 kts 73°
2026-05-08 14:19 56.82555 -53.01767 11046 ft 151 kts 73°
2026-05-08 14:20 56.83190 -53.00234 11054 ft 152 kts 73°
2026-05-08 14:20 56.83828 -52.98697 11041 ft 150 kts 71°
2026-05-08 14:20 56.84452 -52.97189 11040 ft 151 kts 72°
2026-05-08 14:20 56.85086 -52.95650 11040 ft 152 kts 72°
2026-05-08 14:21 56.85722 -52.94110 11043 ft 152 kts 72°
2026-05-08 14:21 56.86358 -52.92570 11044 ft 152 kts 71°
2026-05-08 14:21 56.86996 -52.91022 11045 ft 153 kts 71°
2026-05-08 14:21 56.87635 -52.89468 11046 ft 153 kts 71°
2026-05-08 14:22 56.88277 -52.87910 11047 ft 153 kts 71°
2026-05-08 14:22 56.88920 -52.86351 11045 ft 152 kts 71°
2026-05-08 14:22 56.89556 -52.84807 11047 ft 152 kts 71°
2026-05-08 14:22 56.90191 -52.83259 11046 ft 152 kts 71°
2026-05-08 14:23 56.90825 -52.81715 11044 ft 151 kts 71°
2026-05-08 14:23 56.91458 -52.80178 11033 ft 152 kts 71°
2026-05-08 14:23 56.92093 -52.78624 11006 ft 152 kts 71°
2026-05-08 14:23 56.92724 -52.77091 11006 ft 150 kts 71°
2026-05-08 14:24 56.93349 -52.75564 11003 ft 150 kts 71°
2026-05-08 14:24 56.93974 -52.74037 11005 ft 150 kts 71°
2026-05-08 14:24 56.94599 -52.72510 11003 ft 150 kts 71°
2026-05-08 14:24 56.95223 -52.70982 11006 ft 150 kts 71°
2026-05-08 14:25 56.95849 -52.69451 11002 ft 150 kts 71°
2026-05-08 14:25 56.96475 -52.67915 11005 ft 151 kts 71°
2026-05-08 14:25 56.97103 -52.66378 11006 ft 150 kts 71°
2026-05-08 14:25 56.97730 -52.64843 11006 ft 150 kts 71°
2026-05-08 14:26 56.98356 -52.63309 11004 ft 150 kts 71°
2026-05-08 14:26 56.98977 -52.61785 11002 ft 149 kts 71°
2026-05-08 14:26 56.99595 -52.60266 11000 ft 148 kts 71°
2026-05-08 14:26 57.00211 -52.58754 11000 ft 147 kts 72°
2026-05-08 14:27 57.00822 -52.57251 11003 ft 147 kts 72°
2026-05-08 14:27 57.01432 -52.55752 11000 ft 146 kts 72°
2026-05-08 14:27 57.02040 -52.54253 10998 ft 146 kts 72°
2026-05-08 14:27 57.02646 -52.52757 11009 ft 146 kts 72°
2026-05-08 14:28 57.03243 -52.51289 11010 ft 145 kts 72°
2026-05-08 14:28 57.03844 -52.49806 11011 ft 144 kts 72°
2026-05-08 14:28 57.04443 -52.48328 11007 ft 144 kts 72°
2026-05-08 14:28 57.05040 -52.46853 11004 ft 144 kts 72°
2026-05-08 14:29 57.05633 -52.45385 11009 ft 143 kts 72°
2026-05-08 14:29 57.06226 -52.43919 11006 ft 143 kts 73°
2026-05-08 14:29 57.06819 -52.42454 11005 ft 143 kts 73°
2026-05-08 14:29 57.07405 -52.41010 11007 ft 140 kts 72°
2026-05-08 14:30 57.07985 -52.39569 11009 ft 140 kts 72°
2026-05-08 14:30 57.08564 -52.38130 11008 ft 140 kts 72°
2026-05-08 14:30 57.09144 -52.36689 11009 ft 140 kts 72°
2026-05-08 14:30 57.09726 -52.35245 11010 ft 141 kts 73°
2026-05-08 14:31 57.10310 -52.33795 11012 ft 141 kts 72°
2026-05-08 14:31 57.10895 -52.32342 11019 ft 141 kts 72°
2026-05-08 14:31 57.11479 -52.30890 11017 ft 141 kts 72°
2026-05-08 14:32 57.12643 -52.27994 11019 ft 140 kts 73°
2026-05-08 14:32 57.13223 -52.26548 11018 ft 140 kts 73°
2026-05-08 14:32 57.13803 -52.25104 11017 ft 140 kts 73°
2026-05-08 14:32 57.14381 -52.23663 11016 ft 140 kts 73°
2026-05-08 14:33 57.14958 -52.22222 11013 ft 140 kts 73°
2026-05-08 14:33 57.15534 -52.20783 11013 ft 139 kts 73°
2026-05-08 14:33 57.16109 -52.19348 11012 ft 139 kts 73°
2026-05-08 14:33 57.16677 -52.17930 11015 ft 139 kts 73°
2026-05-08 14:34 57.17258 -52.16477 11015 ft 139 kts 73°
2026-05-08 14:34 57.17823 -52.15061 11021 ft 139 kts 73°
2026-05-08 14:34 57.18399 -52.13616 11023 ft 140 kts 73°
2026-05-08 14:34 57.18979 -52.12160 11026 ft 142 kts 72°
2026-05-08 14:35 57.19565 -52.10688 11028 ft 143 kts 72°
2026-05-08 14:35 57.20158 -52.09201 11030 ft 145 kts 72°
2026-05-08 14:35 57.20757 -52.07700 11034 ft 146 kts 72°
2026-05-08 14:35 57.21359 -52.06181 11035 ft 148 kts 71°
2026-05-08 14:36 57.21972 -52.04639 11040 ft 150 kts 71°
2026-05-08 14:36 57.22591 -52.03087 11038 ft 150 kts 71°
2026-05-08 14:36 57.23208 -52.01537 11037 ft 150 kts 71°
2026-05-08 14:36 57.23822 -51.99992 11036 ft 149 kts 72°
2026-05-08 14:37 57.24435 -51.98448 11038 ft 149 kts 72°
2026-05-08 14:37 57.25052 -51.96889 11024 ft 151 kts 71°
2026-05-08 14:37 57.25672 -51.95324 11032 ft 151 kts 70°
2026-05-08 14:37 57.26294 -51.93752 11035 ft 152 kts 70°
2026-05-08 14:38 57.26920 -51.92170 11038 ft 153 kts 70°
2026-05-08 14:38 57.27547 -51.90586 11038 ft 153 kts 70°
2026-05-08 14:38 57.28175 -51.89002 11037 ft 152 kts 70°
2026-05-08 14:38 57.28798 -51.87425 11034 ft 152 kts 70°
2026-05-08 14:39 57.29418 -51.85856 11032 ft 150 kts 70°
2026-05-08 14:39 57.30026 -51.84316 11027 ft 150 kts 70°
2026-05-08 14:39 57.30639 -51.82760 11028 ft 149 kts 70°
2026-05-08 14:39 57.31249 -51.81212 11031 ft 148 kts 70°
2026-05-08 14:40 57.31850 -51.79690 11027 ft 145 kts 71°
2026-05-08 14:40 57.32442 -51.78187 11036 ft 144 kts 71°
2026-05-08 14:40 57.33029 -51.76688 11035 ft 144 kts 71°
2026-05-08 14:40 57.33617 -51.75192 11036 ft 143 kts 72°
2026-05-08 14:41 57.34202 -51.73703 11032 ft 143 kts 72°
2026-05-08 14:41 57.34783 -51.72225 11033 ft 142 kts 72°
2026-05-08 14:41 57.35362 -51.70750 11031 ft 141 kts 72°
2026-05-08 14:41 57.35937 -51.69284 11032 ft 140 kts 72°
2026-05-08 14:42 57.36507 -51.67828 11036 ft 139 kts 72°
2026-05-08 14:42 57.37074 -51.66381 11038 ft 138 kts 72°
2026-05-08 14:42 57.37635 -51.64945 11036 ft 137 kts 73°
2026-05-08 14:42 57.38194 -51.63519 11035 ft 136 kts 73°
2026-05-08 14:43 57.38750 -51.62095 11031 ft 136 kts 73°
2026-05-08 14:43 57.39304 -51.60677 11033 ft 136 kts 73°
2026-05-08 14:43 57.39857 -51.59259 11041 ft 136 kts 73°
2026-05-08 14:43 57.40410 -51.57841 11048 ft 136 kts 73°
2026-05-08 14:44 57.40963 -51.56423 11048 ft 135 kts 73°
2026-05-08 14:44 57.41516 -51.55000 11021 ft 139 kts 73°
2026-05-08 14:44 57.42084 -51.53539 11007 ft 140 kts 72°
2026-05-08 14:44 57.42652 -51.52083 11009 ft 139 kts 72°
2026-05-08 14:45 57.43218 -51.50629 10988 ft 138 kts 72°
2026-05-08 14:45 57.43778 -51.49189 10994 ft 138 kts 72°
2026-05-08 14:45 57.44340 -51.47743 10992 ft 138 kts 72°
2026-05-08 14:45 57.44902 -51.46295 10996 ft 138 kts 72°
2026-05-08 14:46 57.45466 -51.44843 10994 ft 139 kts 72°
2026-05-08 14:46 57.46031 -51.43385 10999 ft 139 kts 71°
2026-05-08 14:46 57.46597 -51.41922 10997 ft 140 kts 72°
2026-05-08 14:46 57.47165 -51.40457 11005 ft 140 kts 72°
2026-05-08 14:47 57.47733 -51.38992 11014 ft 140 kts 72°
2026-05-08 14:47 57.48302 -51.37522 11007 ft 140 kts 72°
2026-05-08 14:47 57.48870 -51.36051 11009 ft 140 kts 71°
2026-05-08 14:47 57.49439 -51.34577 11008 ft 141 kts 71°
2026-05-08 14:48 57.50009 -51.33100 11009 ft 141 kts 72°
2026-05-08 14:48 57.50580 -51.31621 11010 ft 141 kts 72°
2026-05-08 14:48 57.51152 -51.30141 11008 ft 141 kts 72°
2026-05-08 14:48 57.51723 -51.28658 11010 ft 141 kts 71°
2026-05-08 14:49 57.52296 -51.27171 11011 ft 141 kts 71°
2026-05-08 14:49 57.52867 -51.25688 11009 ft 141 kts 71°
2026-05-08 14:49 57.53438 -51.24202 11010 ft 141 kts 72°
2026-05-08 14:49 57.54010 -51.22717 11021 ft 141 kts 72°
2026-05-08 14:50 57.54581 -51.21232 11016 ft 141 kts 72°
2026-05-08 14:50 57.55152 -51.19744 11016 ft 142 kts 72°
2026-05-08 14:50 57.55724 -51.18250 11018 ft 142 kts 72°
2026-05-08 14:50 57.56298 -51.16753 11019 ft 142 kts 72°
2026-05-08 14:51 57.56874 -51.15252 11021 ft 142 kts 72°
2026-05-08 14:51 57.57451 -51.13748 11021 ft 143 kts 72°
2026-05-08 14:51 57.58028 -51.12241 11019 ft 143 kts 71°
2026-05-08 14:51 57.58605 -51.10731 11020 ft 143 kts 71°
2026-05-08 14:52 57.59182 -51.09220 11023 ft 143 kts 71°
2026-05-08 14:52 57.60330 -51.06218 11023 ft 143 kts 72°
2026-05-08 14:52 57.60908 -51.04703 11023 ft 144 kts 71°
2026-05-08 14:53 57.61486 -51.03192 11024 ft 143 kts 71°
2026-05-08 14:53 57.62061 -51.01679 11025 ft 143 kts 71°
2026-05-08 14:53 57.62639 -51.00161 11025 ft 144 kts 71°
2026-05-08 14:53 57.63217 -50.98641 11025 ft 144 kts 71°
2026-05-08 14:54 57.63796 -50.97120 11023 ft 144 kts 71°
2026-05-08 14:54 57.64376 -50.95597 11022 ft 144 kts 71°
2026-05-08 14:54 57.64954 -50.94074 11022 ft 144 kts 71°
2026-05-08 14:54 57.65532 -50.92551 11021 ft 144 kts 71°
2026-05-08 14:55 57.66109 -50.91031 11022 ft 144 kts 71°
2026-05-08 14:55 57.66686 -50.89510 11021 ft 143 kts 71°
2026-05-08 14:55 57.67263 -50.87991 11020 ft 143 kts 71°
2026-05-08 14:55 57.67837 -50.86474 11020 ft 143 kts 71°
2026-05-08 14:56 57.68409 -50.84963 11022 ft 142 kts 71°
2026-05-08 14:56 57.68980 -50.83453 11021 ft 142 kts 71°
2026-05-08 14:56 57.69549 -50.81948 11023 ft 141 kts 71°
2026-05-08 14:56 57.70116 -50.80448 11021 ft 141 kts 71°
2026-05-08 14:57 57.70682 -50.78950 11022 ft 141 kts 71°
2026-05-08 14:57 57.71246 -50.77452 11007 ft 142 kts 71°
2026-05-08 14:57 57.71814 -50.75947 11006 ft 142 kts 71°
2026-05-08 14:57 57.72381 -50.74440 11009 ft 142 kts 71°
2026-05-08 14:58 57.72948 -50.72936 11007 ft 141 kts 71°
2026-05-08 14:58 57.73514 -50.71432 11005 ft 141 kts 71°
2026-05-08 14:58 57.74080 -50.69929 11007 ft 141 kts 71°
2026-05-08 14:58 57.74645 -50.68428 11005 ft 141 kts 71°
2026-05-08 14:59 57.75207 -50.66930 11004 ft 141 kts 71°
2026-05-08 14:59 57.76331 -50.63933 11014 ft 141 kts 71°
2026-05-08 14:59 57.76894 -50.62431 11014 ft 141 kts 71°
2026-05-08 15:00 57.77459 -50.60926 11019 ft 141 kts 71°
2026-05-08 15:00 57.77831 -50.59930 11012 ft 141 kts 71°
2026-05-08 15:00 57.78394 -50.58426 11012 ft 141 kts 71°
2026-05-08 15:00 57.78955 -50.56932 11003 ft 138 kts 70°
2026-05-08 15:01 57.79679 -50.54997 11010 ft 137 kts 70°
2026-05-08 15:01 57.80224 -50.53533 11008 ft 137 kts 70°
2026-05-08 15:01 57.80596 -50.52533 11010 ft 139 kts 70°
2026-05-08 15:01 57.81155 -50.51033 11013 ft 142 kts 69°
2026-05-08 15:02 57.81726 -50.49499 11010 ft 145 kts 69°
2026-05-08 15:02 57.82305 -50.47943 11006 ft 147 kts 68°
2026-05-08 15:02 57.82890 -50.46378 11011 ft 146 kts 69°
2026-05-08 15:02 57.83468 -50.44833 11008 ft 144 kts 69°
2026-05-08 15:03 57.84030 -50.43325 11004 ft 142 kts 69°
2026-05-08 15:03 57.84592 -50.41812 11001 ft 141 kts 69°
2026-05-08 15:03 57.85158 -50.40290 10999 ft 140 kts 69°
2026-05-08 15:03 57.85712 -50.38796 11001 ft 139 kts 69°
2026-05-08 15:04 57.86264 -50.37308 10999 ft 139 kts 70°
2026-05-08 15:04 57.86815 -50.35825 11003 ft 138 kts 70°
2026-05-08 15:04 57.87362 -50.34347 11003 ft 138 kts 70°
2026-05-08 15:04 57.87900 -50.32894 11001 ft 137 kts 70°
2026-05-08 15:05 57.88441 -50.31434 10999 ft 136 kts 70°
2026-05-08 15:05 57.88978 -50.29984 10998 ft 134 kts 70°
2026-05-08 15:05 57.89507 -50.28551 11011 ft 133 kts 71°
2026-05-08 15:05 57.90033 -50.27127 11008 ft 133 kts 71°
2026-05-08 15:06 57.90557 -50.25708 11012 ft 132 kts 71°
2026-05-08 15:06 57.91079 -50.24294 11011 ft 131 kts 71°
2026-05-08 15:06 57.91597 -50.22890 11012 ft 130 kts 71°
2026-05-08 15:06 57.92111 -50.21495 11010 ft 130 kts 71°
2026-05-08 15:07 57.92623 -50.20108 11013 ft 128 kts 71°
2026-05-08 15:07 57.93130 -50.18732 11009 ft 128 kts 71°
2026-05-08 15:07 57.93634 -50.17363 11011 ft 126 kts 72°
2026-05-08 15:07 57.94132 -50.16012 11009 ft 125 kts 72°
2026-05-08 15:08 57.94623 -50.14679 11012 ft 123 kts 72°
2026-05-08 15:08 57.95106 -50.13364 11011 ft 121 kts 72°
2026-05-08 15:08 57.95583 -50.12064 11009 ft 120 kts 72°
2026-05-08 15:08 57.96054 -50.10782 11009 ft 118 kts 73°
2026-05-08 15:09 57.96518 -50.09519 11004 ft 116 kts 73°
2026-05-08 15:09 57.96972 -50.08296 11005 ft 112 kts 75°
2026-05-08 15:09 57.97412 -50.07099 10983 ft 110 kts 75°
2026-05-08 15:09 57.97842 -50.05918 10947 ft 109 kts 74°
2026-05-08 15:10 57.98270 -50.04742 10908 ft 109 kts 74°
2026-05-08 15:10 57.98697 -50.03562 10843 ft 112 kts 75°
2026-05-08 15:10 57.99161 -50.02252 10725 ft 127 kts 72°
2026-05-08 15:10 57.99667 -50.00884 10734 ft 127 kts 71°
2026-05-08 15:11 58.00171 -49.99519 10736 ft 127 kts 71°
2026-05-08 15:11 58.00677 -49.98150 10738 ft 128 kts 71°
2026-05-08 15:11 58.01177 -49.96793 10739 ft 128 kts 70°
2026-05-08 15:11 58.01687 -49.95409 10741 ft 129 kts 71°
2026-05-08 15:12 58.02199 -49.94016 10744 ft 130 kts 71°
2026-05-08 15:12 58.02715 -49.92614 10746 ft 130 kts 71°
2026-05-08 15:12 58.03235 -49.91199 10749 ft 132 kts 70°
2026-05-08 15:12 58.03757 -49.89776 10771 ft 132 kts 70°
2026-05-08 15:13 58.04277 -49.88361 10793 ft 131 kts 70°
2026-05-08 15:13 58.04794 -49.86955 10813 ft 130 kts 71°
2026-05-08 15:13 58.05307 -49.85557 10837 ft 129 kts 71°
2026-05-08 15:13 58.05818 -49.84165 10860 ft 129 kts 71°
2026-05-08 15:14 58.06326 -49.82780 10882 ft 128 kts 71°
2026-05-08 15:14 58.06830 -49.81401 10905 ft 127 kts 71°
2026-05-08 15:14 58.07332 -49.80027 10928 ft 127 kts 71°
2026-05-08 15:14 58.07831 -49.78662 10950 ft 126 kts 71°
2026-05-08 15:15 58.08328 -49.77303 10976 ft 125 kts 72°
2026-05-08 15:15 58.08823 -49.75952 10995 ft 125 kts 72°
2026-05-08 15:15 58.09313 -49.74609 11015 ft 124 kts 72°
2026-05-08 15:15 58.09801 -49.73271 11033 ft 124 kts 72°
2026-05-08 15:16 58.10290 -49.71920 11035 ft 126 kts 71°
2026-05-08 15:16 58.10788 -49.70551 11054 ft 127 kts 71°
2026-05-08 15:16 58.11293 -49.69163 11060 ft 129 kts 71°
2026-05-08 15:16 58.11804 -49.67757 11059 ft 131 kts 71°
2026-05-08 15:17 58.12323 -49.66332 11057 ft 132 kts 71°
2026-05-08 15:17 58.12846 -49.64887 11057 ft 134 kts 70°
2026-05-08 15:17 58.13376 -49.63426 11056 ft 136 kts 70°
2026-05-08 15:17 58.13913 -49.61949 11050 ft 137 kts 70°
2026-05-08 15:18 58.14455 -49.60458 11057 ft 138 kts 70°
2026-05-08 15:18 58.14999 -49.58956 11055 ft 139 kts 70°
2026-05-08 15:18 58.15546 -49.57447 11057 ft 139 kts 70°
2026-05-08 15:18 58.16094 -49.55934 11055 ft 140 kts 70°
2026-05-08 15:19 58.16643 -49.54416 11059 ft 140 kts 70°
2026-05-08 15:19 58.17194 -49.52895 11059 ft 140 kts 70°
2026-05-08 15:19 58.17738 -49.51391 11072 ft 140 kts 70°
2026-05-08 15:19 58.18289 -49.49866 11067 ft 140 kts 70°
2026-05-08 15:20 58.18839 -49.48341 11067 ft 140 kts 70°
2026-05-08 15:20 58.19389 -49.46818 11069 ft 140 kts 70°
2026-05-08 15:20 58.19936 -49.45303 11068 ft 139 kts 70°
2026-05-08 15:20 58.20482 -49.43788 11063 ft 139 kts 70°
2026-05-08 15:21 58.21028 -49.42269 11063 ft 140 kts 70°
2026-05-08 15:21 58.21575 -49.40747 11066 ft 140 kts 70°
2026-05-08 15:21 58.22123 -49.39225 11066 ft 140 kts 70°
2026-05-08 15:21 58.22671 -49.37700 11067 ft 140 kts 70°
2026-05-08 15:22 58.23218 -49.36176 11066 ft 139 kts 70°
2026-05-08 15:22 58.23764 -49.34654 11065 ft 139 kts 70°
2026-05-08 15:22 58.24309 -49.33136 11060 ft 139 kts 70°
2026-05-08 15:22 58.24866 -49.31571 10995 ft 144 kts 69°
2026-05-08 15:23 58.25428 -49.30009 10995 ft 143 kts 70°
2026-05-08 15:23 58.25986 -49.28455 10994 ft 142 kts 70°
2026-05-08 15:23 58.26540 -49.26906 10990 ft 142 kts 70°
2026-05-08 15:23 58.27092 -49.25360 10997 ft 141 kts 70°
2026-05-08 15:24 58.27643 -49.23821 10991 ft 141 kts 70°
2026-05-08 15:24 58.28191 -49.22285 10987 ft 140 kts 70°
2026-05-08 15:24 58.28737 -49.20755 10987 ft 139 kts 70°
2026-05-08 15:24 58.29272 -49.19254 10984 ft 139 kts 70°
2026-05-08 15:25 58.29812 -49.17740 10984 ft 138 kts 70°
2026-05-08 15:25 58.30350 -49.16230 10981 ft 138 kts 71°
2026-05-08 15:25 58.30884 -49.14725 10982 ft 137 kts 71°
2026-05-08 15:25 58.31418 -49.13226 10979 ft 136 kts 70°
2026-05-08 15:26 58.31946 -49.11745 10997 ft 134 kts 71°
2026-05-08 15:26 58.32467 -49.10278 10992 ft 134 kts 72°
2026-05-08 15:26 58.32985 -49.08817 10996 ft 133 kts 72°
2026-05-08 15:26 58.33503 -49.07357 10993 ft 133 kts 71°
2026-05-08 15:27 58.34020 -49.05898 10992 ft 133 kts 71°
2026-05-08 15:27 58.34536 -49.04442 10993 ft 133 kts 72°
2026-05-08 15:27 58.35052 -49.02986 10993 ft 133 kts 72°
2026-05-08 15:27 58.35566 -49.01533 10997 ft 132 kts 71°
2026-05-08 15:28 58.36081 -49.00076 10994 ft 132 kts 71°
2026-05-08 15:28 58.36594 -48.98623 10996 ft 132 kts 71°
2026-05-08 15:28 58.37108 -48.97168 10997 ft 133 kts 72°
2026-05-08 15:28 58.37623 -48.95709 10994 ft 133 kts 71°
2026-05-08 15:29 58.38139 -48.94249 10997 ft 132 kts 71°
2026-05-08 15:29 58.38653 -48.92791 11002 ft 133 kts 72°
2026-05-08 15:29 58.39166 -48.91334 11011 ft 132 kts 72°
2026-05-08 15:29 58.39681 -48.89873 11007 ft 133 kts 71°
2026-05-08 15:30 58.40194 -48.88416 11008 ft 132 kts 71°
2026-05-08 15:30 58.40706 -48.86961 11002 ft 132 kts 72°
2026-05-08 15:30 58.41215 -48.85516 11005 ft 130 kts 72°
2026-05-08 15:30 58.41717 -48.84087 11006 ft 129 kts 72°
2026-05-08 15:31 58.42215 -48.82672 11004 ft 128 kts 72°
2026-05-08 15:31 58.42707 -48.81270 11003 ft 127 kts 72°
2026-05-08 15:31 58.43190 -48.79888 11006 ft 127 kts 73°
2026-05-08 15:31 58.43681 -48.78489 11004 ft 126 kts 72°
2026-05-08 15:32 58.44168 -48.77101 11010 ft 125 kts 72°
2026-05-08 15:32 58.44652 -48.75720 11009 ft 125 kts 73°
2026-05-08 15:32 58.45132 -48.74343 11002 ft 124 kts 73°
2026-05-08 15:32 58.45611 -48.72982 11003 ft 122 kts 73°
2026-05-08 15:33 58.46082 -48.71635 11019 ft 121 kts 73°
2026-05-08 15:33 58.46548 -48.70298 11012 ft 121 kts 73°
2026-05-08 15:33 58.47012 -48.68973 11019 ft 119 kts 73°
2026-05-08 15:33 58.47470 -48.67660 11015 ft 118 kts 74°
2026-05-08 15:34 58.47923 -48.66364 11018 ft 117 kts 75°
2026-05-08 15:34 58.48369 -48.65085 11021 ft 114 kts 75°
2026-05-08 15:34 58.48809 -48.63827 11017 ft 112 kts 75°
2026-05-08 15:34 58.49237 -48.62601 10992 ft 109 kts 77°
2026-05-08 15:35 58.49672 -48.61303 10867 ft 123 kts 75°
2026-05-08 15:35 58.50151 -48.59936 10854 ft 123 kts 73°
2026-05-08 15:35 58.50619 -48.58606 10867 ft 119 kts 75°
2026-05-08 15:35 58.51071 -48.57317 10869 ft 115 kts 76°
2026-05-08 15:36 58.51513 -48.56049 10861 ft 113 kts 75°
2026-05-08 15:36 58.51799 -48.55223 10865 ft 112 kts 76°
2026-05-08 15:36 58.52367 -48.53592 10852 ft 109 kts 76°
2026-05-08 15:36 58.52780 -48.52407 10847 ft 105 kts 77°
2026-05-08 15:37 58.53192 -48.51185 10756 ft 114 kts 77°
2026-05-08 15:37 58.53640 -48.49872 10663 ft 122 kts 75°
2026-05-08 15:37 58.54119 -48.48484 10598 ft 125 kts 72°
2026-05-08 15:37 58.54598 -48.47121 10594 ft 122 kts 74°
2026-05-08 15:38 58.55065 -48.45781 10585 ft 120 kts 76°
2026-05-08 15:38 58.55521 -48.44467 10578 ft 117 kts 75°
2026-05-08 15:38 58.55967 -48.43181 10569 ft 114 kts 75°
2026-05-08 15:38 58.56400 -48.41927 10559 ft 112 kts 76°
2026-05-08 15:39 58.56825 -48.40695 10547 ft 110 kts 76°
2026-05-08 15:39 58.57244 -48.39484 10539 ft 108 kts 77°
2026-05-08 15:39 58.57652 -48.38299 10530 ft 105 kts 78°
2026-05-08 15:39 58.58053 -48.37150 10516 ft 101 kts 78°
2026-05-08 15:40 58.58437 -48.36044 10477 ft 97 kts 79°
2026-05-08 15:40 58.58810 -48.34922 10020 ft 110 kts 77°
2026-05-08 15:40 58.59139 -48.33987 9735 ft 102 kts 75°
2026-05-08 15:41 58.59293 -48.33525 9540 ft 102 kts 83°
2026-05-08 15:41 58.59681 -48.32380 9117 ft 101 kts 78°
2026-05-08 15:41 58.60068 -48.31262 8673 ft 101 kts 79°
2026-05-08 15:42 58.60460 -48.30152 8245 ft 100 kts 82°
2026-05-08 15:42 58.60839 -48.29050 7837 ft 98 kts 85°
2026-05-08 15:42 58.61211 -48.27952 7499 ft 101 kts 85°
2026-05-08 15:42 58.61585 -48.26751 7482 ft 112 kts 80°
2026-05-08 15:43 58.62042 -48.25408 7389 ft 128 kts 76°
2026-05-08 15:43 58.62548 -48.24007 7476 ft 124 kts 75°
2026-05-08 15:43 58.63027 -48.22627 7504 ft 126 kts 77°
2026-05-08 15:43 58.63509 -48.21211 7533 ft 128 kts 77°
2026-05-08 15:44 58.63998 -48.19777 7564 ft 129 kts 76°
2026-05-08 15:44 58.64493 -48.18332 7590 ft 130 kts 76°
2026-05-08 15:44 58.64988 -48.16885 7615 ft 129 kts 76°
2026-05-08 15:44 58.65481 -48.15442 7640 ft 129 kts 76°
2026-05-08 15:45 58.65974 -48.13994 7667 ft 130 kts 76°
2026-05-08 15:45 58.66470 -48.12537 7688 ft 130 kts 76°
2026-05-08 15:45 58.66965 -48.11078 7700 ft 130 kts 84°
2026-05-08 15:45 58.67461 -48.09628 7734 ft 129 kts 84°
2026-05-08 15:46 58.67950 -48.08203 7784 ft 126 kts 84°
2026-05-08 15:46 58.68427 -48.06805 7828 ft 124 kts 85°
2026-05-08 15:46 58.68895 -48.05430 7874 ft 122 kts 85°
2026-05-08 15:46 58.69354 -48.04076 7921 ft 120 kts 85°
2026-05-08 15:47 58.69809 -48.02734 7967 ft 119 kts 86°
2026-05-08 15:47 58.70261 -48.01401 8014 ft 119 kts 86°
2026-05-08 15:47 58.70710 -48.00077 8065 ft 118 kts 87°
2026-05-08 15:47 58.71156 -47.98758 8117 ft 117 kts 87°
2026-05-08 15:48 58.72048 -47.96121 8213 ft 118 kts 86°
2026-05-08 15:48 58.72344 -47.95246 8246 ft 118 kts 86°
2026-05-08 15:48 58.72934 -47.93504 8310 ft 117 kts 86°
2026-05-08 15:49 58.73375 -47.92198 8355 ft 116 kts 86°
2026-05-08 15:49 58.73815 -47.90899 8425 ft 115 kts 86°
2026-05-08 15:49 58.74252 -47.89606 8474 ft 115 kts 86°
2026-05-08 15:49 58.74686 -47.88318 8524 ft 114 kts 87°
2026-05-08 15:50 58.74978 -47.87445 8546 ft 116 kts 86°
2026-05-08 15:50 58.75419 -47.86129 8578 ft 118 kts 86°
2026-05-08 15:50 58.75869 -47.84792 8609 ft 120 kts 85°
2026-05-08 15:50 58.76326 -47.83434 8640 ft 122 kts 85°
2026-05-08 15:51 58.76789 -47.82059 8670 ft 123 kts 84°
2026-05-08 15:51 58.77251 -47.80685 8696 ft 124 kts 84°
2026-05-08 15:51 58.77723 -47.79282 8723 ft 126 kts 83°
2026-05-08 15:51 58.78200 -47.77863 8746 ft 127 kts 83°
2026-05-08 15:52 58.78680 -47.76434 8783 ft 127 kts 83°
2026-05-08 15:52 58.79159 -47.75016 8834 ft 125 kts 83°
2026-05-08 15:52 58.79631 -47.73611 8883 ft 124 kts 84°
2026-05-08 15:52 58.80098 -47.72218 8929 ft 123 kts 84°
2026-05-08 15:53 58.80567 -47.70818 9004 ft 122 kts 84°
2026-05-08 15:53 58.81020 -47.69464 9047 ft 121 kts 84°
2026-05-08 15:53 58.81476 -47.68102 9102 ft 120 kts 84°
2026-05-08 15:53 58.81928 -47.66752 9150 ft 119 kts 84°
2026-05-08 15:54 58.82375 -47.65411 9203 ft 119 kts 84°
2026-05-08 15:54 58.82821 -47.64076 9255 ft 118 kts 84°
2026-05-08 15:54 58.83264 -47.62748 9300 ft 117 kts 84°
2026-05-08 15:54 58.83706 -47.61425 9352 ft 117 kts 85°
2026-05-08 15:55 58.84141 -47.60110 9366 ft 116 kts 92°
2026-05-08 15:55 58.85033 -47.57421 9431 ft 121 kts 90°
2026-05-08 15:55 58.85492 -47.56041 9461 ft 123 kts 90°
2026-05-08 15:56 58.85953 -47.54664 9519 ft 122 kts 90°
2026-05-08 15:56 58.86411 -47.53296 9569 ft 120 kts 91°
2026-05-08 15:56 58.86863 -47.51940 9620 ft 119 kts 91°
2026-05-08 15:56 58.87310 -47.50594 9691 ft 119 kts 91°
2026-05-08 15:57 58.87752 -47.49262 9734 ft 117 kts 92°
2026-05-08 15:57 58.88191 -47.47940 9784 ft 116 kts 92°
2026-05-08 15:57 58.88626 -47.46622 9834 ft 117 kts 92°
2026-05-08 15:57 58.89067 -47.45283 9862 ft 119 kts 91°
2026-05-08 15:58 58.89515 -47.43928 9881 ft 120 kts 91°
2026-05-08 15:58 58.89966 -47.42560 9918 ft 122 kts 90°
2026-05-08 15:58 58.90425 -47.41172 9945 ft 123 kts 90°
2026-05-08 15:58 58.90888 -47.39772 9971 ft 124 kts 89°
2026-05-08 15:59 58.91356 -47.38359 9996 ft 125 kts 89°
2026-05-08 15:59 58.91825 -47.36938 10021 ft 126 kts 89°
2026-05-08 15:59 58.92296 -47.35514 10043 ft 126 kts 89°
2026-05-08 15:59 58.92766 -47.34090 10068 ft 125 kts 89°
2026-05-08 16:00 58.93235 -47.32668 10091 ft 125 kts 89°
2026-05-08 16:00 58.93703 -47.31247 10113 ft 125 kts 89°
2026-05-08 16:00 58.94169 -47.29833 10152 ft 125 kts 89°
2026-05-08 16:00 58.94633 -47.28423 10177 ft 124 kts 89°
2026-05-08 16:01 58.95095 -47.27021 10199 ft 123 kts 89°
2026-05-08 16:01 58.95552 -47.25628 10221 ft 122 kts 89°
2026-05-08 16:01 58.96007 -47.24246 10242 ft 121 kts 90°
2026-05-08 16:01 58.96457 -47.22876 10263 ft 120 kts 90°
2026-05-08 16:02 58.96902 -47.21521 10287 ft 119 kts 90°
2026-05-08 16:02 58.97343 -47.20179 10303 ft 117 kts 90°
2026-05-08 16:02 58.97776 -47.18856 10321 ft 116 kts 91°
2026-05-08 16:02 58.98207 -47.17532 10321 ft 116 kts 91°
2026-05-08 16:03 58.98641 -47.16203 10325 ft 117 kts 91°
2026-05-08 16:03 58.99077 -47.14869 10322 ft 117 kts 91°
2026-05-08 16:03 58.99509 -47.13548 10325 ft 118 kts 91°
2026-05-08 16:03 58.99953 -47.12188 10324 ft 118 kts 90°
2026-05-08 16:04 59.00392 -47.10843 10329 ft 118 kts 90°
2026-05-08 16:04 59.00825 -47.09516 10317 ft 118 kts 90°
2026-05-08 16:04 59.01265 -47.08162 10287 ft 121 kts 91°
2026-05-08 16:04 59.01728 -47.06694 10187 ft 133 kts 87°
2026-05-08 16:05 59.02236 -47.05123 10085 ft 141 kts 85°
2026-05-08 16:05 59.02773 -47.03489 10001 ft 144 kts 84°
2026-05-08 16:05 59.03309 -47.01886 9998 ft 138 kts 85°
2026-05-08 16:05 59.03819 -47.00333 9990 ft 134 kts 87°
2026-05-08 16:06 59.04314 -46.98812 9991 ft 131 kts 88°
2026-05-08 16:06 59.04796 -46.97326 9991 ft 129 kts 88°
2026-05-08 16:06 59.05269 -46.95865 9989 ft 127 kts 89°
2026-05-08 16:06 59.05735 -46.94429 9990 ft 124 kts 90°
2026-05-08 16:07 59.06193 -46.93015 9989 ft 123 kts 90°
2026-05-08 16:07 59.06645 -46.91619 9989 ft 121 kts 90°
2026-05-08 16:07 59.07091 -46.90238 9988 ft 120 kts 91°
2026-05-08 16:07 59.07533 -46.88872 9986 ft 119 kts 91°
2026-05-08 16:08 59.07969 -46.87524 10009 ft 117 kts 92°
2026-05-08 16:08 59.08398 -46.86186 9965 ft 119 kts 93°
2026-05-08 16:08 59.08849 -46.84739 9866 ft 130 kts 89°
2026-05-08 16:08 59.09343 -46.83198 9759 ft 138 kts 86°
2026-05-08 16:09 59.09866 -46.81583 9639 ft 144 kts 85°
2026-05-08 16:09 59.10405 -46.79923 9509 ft 146 kts 84°
2026-05-08 16:09 59.10953 -46.78233 9390 ft 148 kts 84°
2026-05-08 16:09 59.11504 -46.76525 9258 ft 150 kts 84°
2026-05-08 16:10 59.12058 -46.74806 9126 ft 150 kts 83°
2026-05-08 16:10 59.12613 -46.73084 9021 ft 149 kts 83°
2026-05-08 16:10 59.13154 -46.71433 9008 ft 141 kts 85°
2026-05-08 16:10 59.13667 -46.69840 8997 ft 136 kts 86°
2026-05-08 16:11 59.14161 -46.68296 8987 ft 133 kts 88°
2026-05-08 16:11 59.14635 -46.66812 9008 ft 129 kts 88°
2026-05-08 16:11 59.15105 -46.65342 9008 ft 127 kts 89°
2026-05-08 16:11 59.15568 -46.63890 9006 ft 125 kts 89°
2026-05-08 16:12 59.16026 -46.62455 9007 ft 124 kts 90°
2026-05-08 16:12 59.16481 -46.61032 9010 ft 123 kts 90°
2026-05-08 16:12 59.16931 -46.59626 9009 ft 121 kts 90°
2026-05-08 16:12 59.17375 -46.58231 9010 ft 121 kts 90°
2026-05-08 16:13 59.17816 -46.56851 8982 ft 118 kts 89°
2026-05-08 16:13 59.18245 -46.55517 9006 ft 115 kts 90°
2026-05-08 16:13 59.18666 -46.54185 9009 ft 116 kts 90°
2026-05-08 16:13 59.19091 -46.52845 9010 ft 116 kts 89°
2026-05-08 16:14 59.19518 -46.51501 9012 ft 117 kts 89°
2026-05-08 16:14 59.19946 -46.50156 9012 ft 117 kts 89°
2026-05-08 16:14 59.20371 -46.48818 9011 ft 116 kts 89°
2026-05-08 16:14 59.20796 -46.47485 9009 ft 115 kts 89°
2026-05-08 16:15 59.21218 -46.46159 9025 ft 114 kts 90°
2026-05-08 16:15 59.21635 -46.44848 9026 ft 113 kts 90°
2026-05-08 16:15 59.22048 -46.43549 9026 ft 112 kts 90°
2026-05-08 16:15 59.22456 -46.42264 9026 ft 111 kts 91°
2026-05-08 16:16 59.22860 -46.40989 9029 ft 110 kts 91°
2026-05-08 16:16 59.23260 -46.39719 9026 ft 110 kts 91°
2026-05-08 16:16 59.23662 -46.38450 9026 ft 110 kts 91°
2026-05-08 16:16 59.24063 -46.37184 9027 ft 109 kts 92°
2026-05-08 16:17 59.24463 -46.35921 9037 ft 109 kts 91°
2026-05-08 16:17 59.24725 -46.35085 9036 ft 109 kts 91°
2026-05-08 16:17 59.25257 -46.33403 9037 ft 109 kts 91°
2026-05-08 16:17 59.25653 -46.32150 9037 ft 108 kts 92°
2026-05-08 16:18 59.26047 -46.30906 9037 ft 107 kts 92°
2026-05-08 16:18 59.26437 -46.29675 9037 ft 106 kts 93°
2026-05-08 16:18 59.26822 -46.28456 9038 ft 105 kts 93°
2026-05-08 16:18 59.27202 -46.27252 9038 ft 104 kts 94°
2026-05-08 16:19 59.27575 -46.26067 9033 ft 102 kts 94°
2026-05-08 16:19 59.27945 -46.24842 8975 ft 110 kts 92°
2026-05-08 16:19 59.28364 -46.23479 8877 ft 122 kts 88°
2026-05-08 16:19 59.28819 -46.22026 8770 ft 131 kts 85°
2026-05-08 16:20 59.29309 -46.20476 8656 ft 137 kts 83°
2026-05-08 16:20 59.29817 -46.18870 8536 ft 140 kts 83°
2026-05-08 16:20 59.30334 -46.17234 8413 ft 142 kts 82°
2026-05-08 16:20 59.30855 -46.15578 8282 ft 143 kts 82°
2026-05-08 16:21 59.31378 -46.13913 8158 ft 144 kts 82°
2026-05-08 16:21 59.31901 -46.12249 8031 ft 144 kts 82°
2026-05-08 16:21 59.32423 -46.10580 7903 ft 144 kts 82°
2026-05-08 16:21 59.32945 -46.08912 7778 ft 144 kts 81°
2026-05-08 16:22 59.33467 -46.07236 7654 ft 145 kts 81°
2026-05-08 16:22 59.33995 -46.05543 7532 ft 146 kts 81°
2026-05-08 16:22 59.34527 -46.03835 7401 ft 148 kts 79°
2026-05-08 16:22 59.35066 -46.02110 7279 ft 149 kts 77°
2026-05-08 16:23 59.35606 -46.00378 7152 ft 149 kts 77°
2026-05-08 16:23 59.36144 -45.98655 7083 ft 146 kts 77°
2026-05-08 16:23 59.36663 -45.97003 7076 ft 140 kts 78°
2026-05-08 16:23 59.37163 -45.95396 7070 ft 136 kts 79°
2026-05-08 16:24 59.37651 -45.93823 7072 ft 134 kts 80°
2026-05-08 16:24 59.38132 -45.92272 7070 ft 132 kts 80°
2026-05-08 16:24 59.38606 -45.90738 7068 ft 131 kts 80°
2026-05-08 16:24 59.39079 -45.89210 7068 ft 131 kts 80°
2026-05-08 16:25 59.39549 -45.87692 7074 ft 130 kts 80°
2026-05-08 16:25 59.40017 -45.86177 7072 ft 130 kts 81°
2026-05-08 16:25 59.40486 -45.84659 7072 ft 130 kts 81°
2026-05-08 16:25 59.40956 -45.83139 7074 ft 130 kts 80°
2026-05-08 16:26 59.41427 -45.81616 7086 ft 130 kts 80°
2026-05-08 16:26 59.41897 -45.80092 7090 ft 131 kts 80°
2026-05-08 16:26 59.42368 -45.78564 7089 ft 131 kts 80°
2026-05-08 16:26 59.42839 -45.77038 7086 ft 131 kts 80°
2026-05-08 16:27 59.43309 -45.75513 7091 ft 130 kts 80°
2026-05-08 16:27 59.43779 -45.73987 7093 ft 130 kts 80°
2026-05-08 16:27 59.44249 -45.72462 7089 ft 131 kts 80°
2026-05-08 16:27 59.44718 -45.70934 7092 ft 131 kts 80°
2026-05-08 16:28 59.45182 -45.69424 7090 ft 131 kts 80°
2026-05-08 16:28 59.45653 -45.67892 7091 ft 131 kts 80°
2026-05-08 16:28 59.46122 -45.66365 7089 ft 130 kts 80°
2026-05-08 16:28 59.46590 -45.64839 7088 ft 130 kts 80°
2026-05-08 16:29 59.47057 -45.63314 7086 ft 130 kts 80°
2026-05-08 16:29 59.47524 -45.61788 7089 ft 130 kts 80°
2026-05-08 16:29 59.47992 -45.60261 7104 ft 130 kts 80°
2026-05-08 16:29 59.48461 -45.58727 7107 ft 131 kts 80°
2026-05-08 16:30 59.48930 -45.57192 7102 ft 131 kts 80°
2026-05-08 16:30 59.49400 -45.55653 7104 ft 131 kts 80°
2026-05-08 16:30 59.49869 -45.54115 7107 ft 131 kts 80°
2026-05-08 16:30 59.50340 -45.52572 7103 ft 131 kts 80°
2026-05-08 16:31 59.50809 -45.51034 7104 ft 131 kts 80°
2026-05-08 16:31 59.51277 -45.49504 7102 ft 129 kts 79°
2026-05-08 16:31 59.51742 -45.47972 7099 ft 131 kts 79°
2026-05-08 16:31 59.52210 -45.46440 7130 ft 129 kts 79°
2026-05-08 16:32 59.52669 -45.44937 7179 ft 127 kts 80°
2026-05-08 16:32 59.53121 -45.43450 7228 ft 126 kts 80°
2026-05-08 16:32 59.53569 -45.41974 7274 ft 125 kts 80°
2026-05-08 16:32 59.54012 -45.40511 7322 ft 124 kts 81°
2026-05-08 16:33 59.54453 -45.39056 7382 ft 123 kts 81°
2026-05-08 16:33 59.54893 -45.37604 7434 ft 123 kts 81°
2026-05-08 16:33 59.55333 -45.36155 7483 ft 123 kts 81°
2026-05-08 16:33 59.55770 -45.34710 7533 ft 123 kts 81°
2026-05-08 16:34 59.56207 -45.33265 7580 ft 123 kts 81°
2026-05-08 16:34 59.56642 -45.31823 7631 ft 123 kts 82°
2026-05-08 16:34 59.57079 -45.30379 7682 ft 122 kts 82°
2026-05-08 16:34 59.57515 -45.28936 7729 ft 122 kts 82°
2026-05-08 16:35 59.57951 -45.27494 7786 ft 122 kts 82°
2026-05-08 16:35 59.58380 -45.26070 7835 ft 122 kts 82°
2026-05-08 16:35 59.58815 -45.24626 7888 ft 123 kts 82°
2026-05-08 16:35 59.59108 -45.23652 7921 ft 122 kts 82°
2026-05-08 16:36 59.59685 -45.21734 7976 ft 123 kts 82°
2026-05-08 16:36 59.60122 -45.20287 8012 ft 123 kts 78°
2026-05-08 16:36 59.60416 -45.19309 8044 ft 122 kts 79°
2026-05-08 16:36 59.60850 -45.17864 8097 ft 122 kts 79°
2026-05-08 16:37 59.61284 -45.16422 8162 ft 122 kts 79°
2026-05-08 16:37 59.61717 -45.14976 8218 ft 122 kts 79°
2026-05-08 16:37 59.62151 -45.13528 8265 ft 123 kts 79°
2026-05-08 16:37 59.62585 -45.12079 8316 ft 123 kts 79°
2026-05-08 16:38 59.62966 -45.10643 8360 ft 110 kts 98°
2026-05-08 16:38 59.63134 -45.09198 8418 ft 109 kts 98°
2026-05-08 16:38 59.63249 -45.07779 8471 ft 104 kts 105°
2026-05-08 16:38 59.63356 -45.06361 8524 ft 104 kts 105°
2026-05-08 16:39 59.63462 -45.04946 8578 ft 104 kts 105°
2026-05-08 16:39 59.63569 -45.03528 8631 ft 104 kts 106°
2026-05-08 16:39 59.63676 -45.02114 8683 ft 104 kts 105°
2026-05-08 16:39 59.63784 -45.00699 8735 ft 104 kts 105°
2026-05-08 16:40 59.63891 -44.99284 8784 ft 104 kts 105°
2026-05-08 16:40 59.63998 -44.97870 8837 ft 104 kts 105°
2026-05-08 16:40 59.64106 -44.96457 8889 ft 104 kts 105°
2026-05-08 16:40 59.64215 -44.95044 8942 ft 104 kts 106°
2026-05-08 16:41 59.64325 -44.93631 8997 ft 104 kts 106°
2026-05-08 16:41 59.64436 -44.92220 9050 ft 104 kts 106°
2026-05-08 16:41 59.64548 -44.90808 9102 ft 104 kts 106°
2026-05-08 16:42 59.64766 -44.87964 9174 ft 106 kts 106°
2026-05-08 16:42 59.64865 -44.86509 9228 ft 107 kts 106°
2026-05-08 16:42 59.64964 -44.85039 9283 ft 108 kts 106°
2026-05-08 16:42 59.65061 -44.83561 9338 ft 109 kts 106°
2026-05-08 16:43 59.65158 -44.82077 9393 ft 109 kts 106°
2026-05-08 16:43 59.65254 -44.80591 9442 ft 109 kts 106°
2026-05-08 16:43 59.65351 -44.79100 9496 ft 109 kts 106°
2026-05-08 16:43 59.65450 -44.77609 9549 ft 109 kts 106°
2026-05-08 16:44 59.65548 -44.76141 9603 ft 109 kts 107°
2026-05-08 16:44 59.65648 -44.74654 9654 ft 109 kts 107°
2026-05-08 16:44 59.65747 -44.73164 9689 ft 110 kts 107°
2026-05-08 16:44 59.65844 -44.71652 9719 ft 111 kts 107°
2026-05-08 16:45 59.65938 -44.70123 9761 ft 113 kts 107°
2026-05-08 16:45 59.65968 -44.68624 9793 ft 107 kts 115°
2026-05-08 16:45 59.65963 -44.67137 9822 ft 108 kts 115°
2026-05-08 16:45 59.65955 -44.65639 9852 ft 109 kts 115°
2026-05-08 16:46 59.65944 -44.64134 9881 ft 110 kts 115°
2026-05-08 16:46 59.65931 -44.62620 9910 ft 111 kts 115°
2026-05-08 16:46 59.65916 -44.61097 9939 ft 111 kts 115°
2026-05-08 16:46 59.65901 -44.59570 9965 ft 111 kts 115°
2026-05-08 16:47 59.65886 -44.58040 9992 ft 111 kts 115°
2026-05-08 16:47 59.65872 -44.56508 10018 ft 112 kts 115°
2026-05-08 16:47 59.65856 -44.54971 10054 ft 112 kts 115°
2026-05-08 16:47 59.65840 -44.53432 10080 ft 112 kts 115°
2026-05-08 16:48 59.65822 -44.51889 10103 ft 112 kts 115°
2026-05-08 16:48 59.65837 -44.50317 10126 ft 118 kts 107°
2026-05-08 16:48 59.65935 -44.48686 10149 ft 123 kts 101°
2026-05-08 16:48 59.66095 -44.47025 10173 ft 123 kts 101°
2026-05-08 16:49 59.66251 -44.45363 10196 ft 123 kts 102°
2026-05-08 16:49 59.66407 -44.43698 10219 ft 123 kts 102°
2026-05-08 16:49 59.66562 -44.42034 10243 ft 123 kts 102°
2026-05-08 16:49 59.66718 -44.40368 10265 ft 123 kts 102°
2026-05-08 16:50 59.66880 -44.38704 10290 ft 127 kts 95°
2026-05-08 16:50 59.67229 -44.37017 10313 ft 132 kts 87°
2026-05-08 16:50 59.67581 -44.35331 10339 ft 133 kts 87°
2026-05-08 16:50 59.67936 -44.33649 10361 ft 133 kts 86°
2026-05-08 16:51 59.68290 -44.31962 10387 ft 133 kts 86°
2026-05-08 16:51 59.68644 -44.30274 10409 ft 133 kts 86°
2026-05-08 16:51 59.68997 -44.28586 10433 ft 133 kts 87°
2026-05-08 16:51 59.69351 -44.26895 10454 ft 133 kts 86°
2026-05-08 16:52 59.69932 -44.25312 10485 ft 147 kts 59°
2026-05-08 16:52 59.70650 -44.23853 10512 ft 148 kts 58°
2026-05-08 16:52 59.71374 -44.22401 10533 ft 148 kts 58°
2026-05-08 16:52 59.72096 -44.20951 10557 ft 148 kts 58°
2026-05-08 16:53 59.73539 -44.18056 10604 ft 147 kts 58°
2026-05-08 16:53 59.74258 -44.16611 10628 ft 147 kts 58°
2026-05-08 16:53 59.74975 -44.15165 10652 ft 147 kts 58°
2026-05-08 16:54 59.75691 -44.13717 10677 ft 147 kts 58°
2026-05-08 16:54 59.76397 -44.12290 10702 ft 147 kts 58°
2026-05-08 16:54 59.77113 -44.10840 10726 ft 147 kts 58°
2026-05-08 16:54 59.77829 -44.09393 10749 ft 147 kts 58°
2026-05-08 16:55 59.78556 -44.07925 10782 ft 147 kts 58°
2026-05-08 16:55 59.79262 -44.06497 10804 ft 147 kts 58°
2026-05-08 16:55 59.79977 -44.05051 10829 ft 147 kts 58°
2026-05-08 16:55 59.80690 -44.03598 10857 ft 147 kts 58°
2026-05-08 16:56 59.81412 -44.02104 10893 ft 153 kts 59°
2026-05-08 16:56 59.82149 -44.00571 10923 ft 154 kts 59°
2026-05-08 16:56 59.82888 -43.99028 10944 ft 154 kts 59°
2026-05-08 16:56 59.83626 -43.97519 10959 ft 150 kts 58°
2026-05-08 16:57 59.84351 -43.96027 10987 ft 151 kts 58°
2026-05-08 16:57 59.85078 -43.94508 11011 ft 152 kts 59°
2026-05-08 16:57 59.85805 -43.92990 11033 ft 151 kts 59°
2026-05-08 16:57 59.86532 -43.91483 11057 ft 150 kts 59°
2026-05-08 16:58 59.87255 -43.89988 11067 ft 149 kts 59°
2026-05-08 16:58 59.87974 -43.88530 11075 ft 148 kts 58°
2026-05-08 16:58 59.88701 -43.87020 11088 ft 153 kts 59°
2026-05-08 16:58 59.89440 -43.85458 11091 ft 156 kts 59°
2026-05-08 16:59 59.90185 -43.83863 11085 ft 157 kts 59°
2026-05-08 16:59 59.90933 -43.82250 11085 ft 159 kts 59°
2026-05-08 16:59 59.91679 -43.80663 11073 ft 153 kts 59°
2026-05-08 16:59 59.92408 -43.79136 11072 ft 151 kts 59°
2026-05-08 17:00 59.93131 -43.77615 11077 ft 151 kts 59°
2026-05-08 17:00 59.93856 -43.76091 11076 ft 152 kts 59°
2026-05-08 17:00 59.94578 -43.74557 11080 ft 152 kts 59°
2026-05-08 17:00 59.95295 -43.72981 11085 ft 154 kts 59°
2026-05-08 17:01 59.96001 -43.71388 11082 ft 152 kts 59°
2026-05-08 17:01 59.96700 -43.69811 11082 ft 152 kts 60°
2026-05-08 17:01 59.97394 -43.68247 11078 ft 149 kts 60°
2026-05-08 17:01 59.98072 -43.66720 11080 ft 149 kts 60°
2026-05-08 17:02 59.98759 -43.65172 11081 ft 150 kts 59°
2026-05-08 17:02 59.99448 -43.63616 11078 ft 150 kts 59°
2026-05-08 17:02 60.00136 -43.62057 11085 ft 150 kts 59°
2026-05-08 17:02 60.00827 -43.60457 11085 ft 153 kts 60°
2026-05-08 17:03 60.01509 -43.58898 11070 ft 141 kts 60°
2026-05-08 17:03 60.02134 -43.57518 11083 ft 133 kts 59°
2026-05-08 17:03 60.02770 -43.56132 11094 ft 138 kts 60°
2026-05-08 17:03 60.03429 -43.54662 11110 ft 145 kts 60°
2026-05-08 17:04 60.04103 -43.53139 11094 ft 144 kts 60°
2026-05-08 17:04 60.04762 -43.51658 11090 ft 142 kts 59°
2026-05-08 17:04 60.05414 -43.50192 11094 ft 141 kts 60°
2026-05-08 17:04 60.06070 -43.48720 11102 ft 143 kts 60°
2026-05-08 17:05 60.06740 -43.47202 11105 ft 149 kts 60°
2026-05-08 17:05 60.07430 -43.45627 11104 ft 153 kts 59°
2026-05-08 17:05 60.08128 -43.44042 11095 ft 149 kts 60°
2026-05-08 17:05 60.08804 -43.42517 11090 ft 146 kts 60°
2026-05-08 17:06 60.09477 -43.40995 11089 ft 146 kts 60°
2026-05-08 17:06 60.10152 -43.39468 11093 ft 147 kts 60°
2026-05-08 17:06 60.10835 -43.37912 11094 ft 149 kts 60°
2026-05-08 17:06 60.11518 -43.36355 11099 ft 148 kts 60°
2026-05-08 17:07 60.12199 -43.34802 11100 ft 149 kts 60°
2026-05-08 17:07 60.12877 -43.33249 11095 ft 147 kts 60°
2026-05-08 17:07 60.13546 -43.31711 11097 ft 147 kts 60°
2026-05-08 17:07 60.14221 -43.30171 11097 ft 147 kts 60°
2026-05-08 17:08 60.14896 -43.28628 11096 ft 147 kts 60°
2026-05-08 17:08 60.15590 -43.27108 11087 ft 151 kts 49°
2026-05-08 17:08 60.16276 -43.25604 11100 ft 141 kts 74°
2026-05-08 17:08 60.16751 -43.23881 11104 ft 141 kts 75°
2026-05-08 17:09 60.17224 -43.22133 11015 ft 148 kts 75°
2026-05-08 17:09 60.17727 -43.20308 11005 ft 146 kts 75°
2026-05-08 17:09 60.18212 -43.18555 11007 ft 147 kts 75°
2026-05-08 17:09 60.18707 -43.16750 11007 ft 148 kts 75°
2026-05-08 17:10 60.19201 -43.14963 11010 ft 144 kts 75°
2026-05-08 17:10 60.19685 -43.13203 11000 ft 144 kts 75°
2026-05-08 17:10 60.20171 -43.11433 11000 ft 145 kts 75°
2026-05-08 17:10 60.20654 -43.09675 10998 ft 143 kts 75°
2026-05-08 17:11 60.21131 -43.07938 11005 ft 141 kts 75°
2026-05-08 17:11 60.21603 -43.06213 10997 ft 140 kts 76°
2026-05-08 17:11 60.22073 -43.04499 10999 ft 139 kts 76°
2026-05-08 17:11 60.22540 -43.02791 11001 ft 139 kts 76°
2026-05-08 17:12 60.23006 -43.01088 10996 ft 138 kts 76°
2026-05-08 17:12 60.23470 -42.99387 11001 ft 139 kts 76°
2026-05-08 17:12 60.23933 -42.97687 11000 ft 139 kts 76°
2026-05-08 17:12 60.24399 -42.95980 11005 ft 139 kts 76°
2026-05-08 17:13 60.24863 -42.94281 11004 ft 138 kts 76°
2026-05-08 17:13 60.25326 -42.92581 10999 ft 138 kts 76°
2026-05-08 17:13 60.25788 -42.90883 10996 ft 138 kts 76°
2026-05-08 17:13 60.26250 -42.89186 11000 ft 138 kts 76°
2026-05-08 17:14 60.26710 -42.87491 10998 ft 138 kts 76°
2026-05-08 17:14 60.27171 -42.85794 11001 ft 138 kts 76°
2026-05-08 17:14 60.27632 -42.84097 11003 ft 138 kts 76°
2026-05-08 17:14 60.28093 -42.82397 11003 ft 138 kts 76°
2026-05-08 17:15 60.28553 -42.80698 11002 ft 138 kts 76°
2026-05-08 17:15 60.29012 -42.79000 11003 ft 138 kts 76°
2026-05-08 17:15 60.29471 -42.77303 10997 ft 138 kts 77°
2026-05-08 17:15 60.29930 -42.75606 11007 ft 138 kts 77°
2026-05-08 17:16 60.30389 -42.73909 11004 ft 138 kts 77°
2026-05-08 17:16 60.30848 -42.72212 11003 ft 138 kts 77°
2026-05-08 17:16 60.31299 -42.70538 10990 ft 138 kts 76°
2026-05-08 17:16 60.31753 -42.68860 11007 ft 136 kts 74°
2026-05-08 17:17 60.32203 -42.67184 11006 ft 136 kts 74°
2026-05-08 17:17 60.32652 -42.65512 11006 ft 136 kts 74°
2026-05-08 17:17 60.33103 -42.63836 11006 ft 136 kts 74°
2026-05-08 17:17 60.33553 -42.62164 11006 ft 136 kts 74°
2026-05-08 17:18 60.34002 -42.60490 11006 ft 136 kts 74°
2026-05-08 17:18 60.34153 -42.59926 11006 ft 135 kts 75°
2026-05-08 17:18 60.34882 -42.57208 11005 ft 135 kts 74°
2026-05-08 17:18 60.35335 -42.55518 11005 ft 135 kts 75°
2026-05-08 17:19 60.35783 -42.53844 11005 ft 135 kts 75°
2026-05-08 17:19 60.36231 -42.52172 11005 ft 135 kts 75°
2026-05-08 17:19 60.36679 -42.50496 11005 ft 136 kts 75°
2026-05-08 17:19 60.37127 -42.48821 11005 ft 136 kts 74°
2026-05-08 17:20 60.37567 -42.47168 11007 ft 135 kts 75°
2026-05-08 17:20 60.38014 -42.45494 11007 ft 135 kts 75°
2026-05-08 17:20 60.38461 -42.43819 11007 ft 135 kts 75°
2026-05-08 17:20 60.38907 -42.42143 11007 ft 135 kts 75°
2026-05-08 17:21 60.39353 -42.40468 11007 ft 135 kts 75°
2026-05-08 17:21 60.39799 -42.38792 11006 ft 135 kts 75°
2026-05-08 17:21 60.40244 -42.37116 11006 ft 135 kts 75°
2026-05-08 17:21 60.40689 -42.35438 11007 ft 135 kts 75°
2026-05-08 17:22 60.41135 -42.33761 11007 ft 135 kts 75°
2026-05-08 17:22 60.41580 -42.32083 11006 ft 135 kts 75°
2026-05-08 17:22 60.42025 -42.30405 11006 ft 135 kts 75°
2026-05-08 17:22 60.42469 -42.28728 11006 ft 135 kts 75°
2026-05-08 17:23 60.42912 -42.27049 11008 ft 135 kts 75°
2026-05-08 17:23 60.43356 -42.25369 11008 ft 135 kts 75°
2026-05-08 17:23 60.43801 -42.23688 11008 ft 135 kts 75°
2026-05-08 17:23 60.44245 -42.22007 11008 ft 135 kts 75°
2026-05-08 17:24 60.44688 -42.20328 10996 ft 134 kts 73°
2026-05-08 17:24 60.45127 -42.18669 11005 ft 134 kts 73°
2026-05-08 17:24 60.45565 -42.17000 11005 ft 135 kts 73°
2026-05-08 17:24 60.46007 -42.15321 11006 ft 135 kts 73°
2026-05-08 17:25 60.46449 -42.13639 11007 ft 135 kts 73°
2026-05-08 17:25 60.46891 -42.11956 11004 ft 135 kts 72°
2026-05-08 17:25 60.47034 -42.11413 11008 ft 135 kts 71°
2026-05-08 17:25 60.47626 -42.09158 11007 ft 136 kts 71°
2026-05-08 17:26 60.48215 -42.06913 11012 ft 136 kts 71°
2026-05-08 17:26 60.48658 -42.05220 11012 ft 136 kts 71°
2026-05-08 17:26 60.49103 -42.03520 11012 ft 136 kts 71°
2026-05-08 17:26 60.49547 -42.01821 11012 ft 136 kts 71°
2026-05-08 17:27 60.49992 -42.00121 11012 ft 137 kts 71°
2026-05-08 17:27 60.50438 -41.98416 11013 ft 137 kts 71°
2026-05-08 17:27 60.50883 -41.96706 11005 ft 138 kts 71°
2026-05-08 17:27 60.51179 -41.95572 11006 ft 137 kts 71°
2026-05-08 17:28 60.51776 -41.93280 11005 ft 137 kts 71°
2026-05-08 17:28 60.52072 -41.92147 11005 ft 137 kts 71°
2026-05-08 17:28 60.52518 -41.90435 11004 ft 137 kts 71°
2026-05-08 17:28 60.53114 -41.88143 11004 ft 137 kts 71°
2026-05-08 17:29 60.53559 -41.86430 11004 ft 137 kts 71°
2026-05-08 17:29 60.53853 -41.85297 11004 ft 137 kts 71°
2026-05-08 17:29 60.54297 -41.83586 11004 ft 137 kts 72°
2026-05-08 17:29 60.54891 -41.81294 11003 ft 137 kts 71°
2026-05-08 17:30 60.55185 -41.80159 11004 ft 137 kts 71°
2026-05-08 17:30 60.55629 -41.78444 11003 ft 137 kts 71°
2026-05-08 17:30 60.56072 -41.76730 11003 ft 137 kts 71°
2026-05-08 17:30 60.56515 -41.75016 11003 ft 137 kts 72°
2026-05-08 17:31 60.56958 -41.73302 11006 ft 137 kts 72°
2026-05-08 17:31 60.57401 -41.71589 11006 ft 137 kts 72°
2026-05-08 17:31 60.57843 -41.69875 11006 ft 137 kts 72°
2026-05-08 17:31 60.58284 -41.68161 11006 ft 137 kts 72°
2026-05-08 17:32 60.58725 -41.66446 11005 ft 137 kts 72°
2026-05-08 17:32 60.59167 -41.64732 11004 ft 137 kts 72°
2026-05-08 17:32 60.59608 -41.63018 11004 ft 137 kts 72°
2026-05-08 17:32 60.60049 -41.61303 11004 ft 137 kts 72°
2026-05-08 17:33 60.60489 -41.59587 11001 ft 137 kts 72°
2026-05-08 17:33 60.60928 -41.57873 11001 ft 137 kts 72°
2026-05-08 17:33 60.61368 -41.56157 11001 ft 137 kts 72°
2026-05-08 17:33 60.61807 -41.54440 11001 ft 137 kts 72°
2026-05-08 17:34 60.62247 -41.52725 10994 ft 136 kts 71°
2026-05-08 17:34 60.62685 -41.51016 10996 ft 136 kts 71°
2026-05-08 17:34 60.63122 -41.49305 10995 ft 136 kts 71°
2026-05-08 17:34 60.63558 -41.47596 10995 ft 136 kts 71°
2026-05-08 17:35 60.63988 -41.45908 10996 ft 136 kts 71°
2026-05-08 17:35 60.64424 -41.44196 10996 ft 136 kts 71°
2026-05-08 17:35 60.64861 -41.42483 10996 ft 136 kts 71°
2026-05-08 17:35 60.65297 -41.40770 10996 ft 136 kts 71°
2026-05-08 17:36 60.65733 -41.39058 10997 ft 136 kts 71°
2026-05-08 17:36 60.66168 -41.37345 10998 ft 136 kts 71°
2026-05-08 17:36 60.66602 -41.35632 10997 ft 136 kts 71°
2026-05-08 17:36 60.67038 -41.33916 10998 ft 136 kts 71°
2026-05-08 17:37 60.67473 -41.32201 10997 ft 136 kts 71°
2026-05-08 17:37 60.67907 -41.30487 10997 ft 136 kts 71°
2026-05-08 17:37 60.68342 -41.28773 10999 ft 136 kts 71°
2026-05-08 17:37 60.68776 -41.27056 10999 ft 136 kts 71°
2026-05-08 17:38 60.69209 -41.25338 10997 ft 136 kts 71°
2026-05-08 17:38 60.69644 -41.23619 10997 ft 136 kts 71°
2026-05-08 17:38 60.70077 -41.21903 10996 ft 136 kts 71°
2026-05-08 17:38 60.70510 -41.20188 10996 ft 136 kts 71°
2026-05-08 17:39 60.70942 -41.18473 10999 ft 136 kts 71°
2026-05-08 17:39 60.71374 -41.16754 10998 ft 136 kts 71°
2026-05-08 17:39 60.71806 -41.15036 10999 ft 136 kts 71°
2026-05-08 17:39 60.72239 -41.13315 10998 ft 136 kts 71°
2026-05-08 17:40 60.72672 -41.11592 11000 ft 136 kts 71°
2026-05-08 17:40 60.73104 -41.09873 11000 ft 136 kts 71°
2026-05-08 17:40 60.73536 -41.08152 11000 ft 136 kts 71°
2026-05-08 17:40 60.73967 -41.06432 11000 ft 136 kts 71°
2026-05-08 17:41 60.74398 -41.04708 11000 ft 136 kts 71°
2026-05-08 17:41 60.74829 -41.02984 11000 ft 136 kts 71°
2026-05-08 17:41 60.75261 -41.01259 11000 ft 136 kts 71°
2026-05-08 17:41 60.75692 -40.99533 11000 ft 136 kts 71°
2026-05-08 17:42 60.76123 -40.97807 11001 ft 136 kts 71°
2026-05-08 17:42 60.76552 -40.96088 11001 ft 136 kts 71°
2026-05-08 17:42 60.76980 -40.94368 11001 ft 136 kts 72°
2026-05-08 17:42 60.77410 -40.92647 11001 ft 136 kts 70°
2026-05-08 17:43 60.77837 -40.90928 10998 ft 136 kts 70°
2026-05-08 17:43 60.78265 -40.89209 11000 ft 135 kts 71°
2026-05-08 17:43 60.78692 -40.87491 11000 ft 136 kts 71°
2026-05-08 17:43 60.79119 -40.85768 11000 ft 136 kts 70°
2026-05-08 17:44 60.79542 -40.84065 10998 ft 136 kts 70°
2026-05-08 17:44 60.79969 -40.82340 10997 ft 136 kts 70°
2026-05-08 17:44 60.80113 -40.81760 11000 ft 136 kts 70°